GFSSGP_con_mlcape_000.txt.gz
CAPE
0 0 0 0 0 0 0 0 0 0 0 0 0 0 0 0 0 0 0 0 0 75 382 130 1 0 0 0 6 37 183 388 396 233 53 0 0 0 0 0 0 0 0 0 2 4 20 2 0
0 0 0 0 57 34 9 0 0 0 0 0 0 0 0 0 0 0 0 0 0 0 196 452 14 0 0 84 330 495 752 670 522 334 258 50 27 25 11 0 0 0 0 3 1 3 3 1 3
0 1 10 25 57 23 5 0 0 0 0 0 0 0 0 0 0 0 0 0 0 0 0 285 209 1 74 453 909 1114 985 754 471 102 43 39 89 85 71 73 72 40 5 5 7 8 3 72 31
69 15 7 24 0 17 20 0 0 0 0 0 0 0 0 0 0 0 0 0 0 0 0 233 174 297 500 983 1418 1310 978 774 256 1 1 4 48 58 57 70 99 108 67 30 5 11 34 118 221
35 4 10 27 17 8 0 1 0 0 0 0 0 0 0 0 0 0 0 0 0 0 0 0 0 0 0 118 782 918 654 399 217 39 74 94 101 84 70 94 92 68 92 73 5 5 60 239 216
0 12 6 2 22 2 1 0 0 0 0 0 0 0 0 0 0 0 0 0 0 0 0 0 0 0 0 0 12 117 53 11 0 0 0 2 26 28 12 17 1 3 113 158 41 7 0 25 320
5 23 20 24 18 7 0 0 0 0 0 0 0 0 0 0 0 0 0 0 0 0 0 0 0 0 0 0 0 0 0 0 0 0 0 0 1 0 0 27 55 110 231 225 109 5 2 0 146
0 0 1 5 18 24 29 0 0 0 0 0 0 0 0 0 0 0 0 0 0 0 0 0 0 0 0 0 0 0 0 0 0 0 0 1 2 0 0 50 180 231 368 317 207 62 0 0 58
0 0 0 11 17 11 1 0 1 0 0 0 0 0 0 0 0 0 0 0 0 0 0 0 0 0 0 0 1 0 0 3 0 3 1 5 5 7 8 66 297 249 405 347 186 44 86 18 72
0 0 0 6 2 0 0 0 0 0 0 0 0 0 0 0 0 0 0 0 0 0 0 0 0 0 0 0 0 0 0 0 0 0 3 3 5 4 17 29 133 346 335 308 212 176 109 16 32
0 0 0 0 1 0 0 0 0 0 0 0 0 0 0 0 0 0 0 0 0 0 0 0 0 0 0 0 0 0 9 0 0 0 0 3 3 0 7 16 155 221 342 266 220 121 108 19 0
0 0 0 0 0 0 0 0 0 0 0 0 0 0 0 0 0 0 0 0 0 0 0 0 0 0 0 4 0 0 19 0 0 2 0 0 6 8 15 27 87 90 235 188 127 111 100 14 0
1 1 1 0 0 0 0 0 0 0 0 0 0 0 0 0 0 0 0 0 0 0 0 0 0 0 39 26 0 6 0 0 2 4 24 0 2 4 13 22 27 30 132 124 115 127 69 27 0
0 1 0 0 0 0 0 0 0 0 0 0 0 0 0 0 0 0 0 0 0 0 0 0 0 0 7 0 0 17 18 14 16 13 15 37 22 11 36 2 0 39 65 79 145 246 154 95 46
0 0 0 0 0 0 0 0 0 0 0 0 0 0 0 0 0 0 0 0 0 0 0 0 0 0 0 0 28 14 18 3 7 15 22 10 41 29 135 39 5 1 32 33 69 169 167 207 177
0 0 0 0 0 0 1 0 0 0 0 0 0 0 0 0 0 0 0 0 0 0 0 0 0 0 0 30 61 5 10 30 31 53 8 1 0 53 130 43 21 1 15 33 59 149 189 239 57
0 0 0 0 0 0 2 0 0 0 1 2 0 0 0 0 0 0 0 0 0 0 0 0 0 0 23 69 12 14 168 231 133 42 0 1 0 121 132 81 134 58 10 14 165 149 182 224 176
0 0 0 0 0 1 1 0 0 0 0 8 29 0 0 0 0 0 0 0 0 0 0 6 1 50 163 23 60 49 424 526 285 67 1 0 0 100 161 99 91 192 22 40 91 177 214 182 239
0 0 0 11 9 3 0 7 13 1 0 0 0 4 0 0 0 0 0 0 0 0 0 98 46 94 32 1 64 139 306 51 71 62 82 38 34 34 107 109 121 164 83 32 158 107 107 222 191
0 0 0 0 4 4 0 4 1 0 0 0 0 0 0 0 0 0 0 4 0 0 0 63 92 54 27 106 210 254 352 389 190 130 93 65 47 64 107 90 108 107 141 135 162 91 115 158 245
0 0 0 1 1 7 3 0 0 0 2 1 2 0 0 0 0 0 8 23 0 0 0 55 60 19 78 264 224 155 183 253 457 185 103 46 42 73 99 190 133 77 251 228 200 145 108 274 195
0 0 0 4 0 0 0 0 0 0 0 0 0 0 0 34 28 12 19 39 0 0 0 20 26 11 138 30 80 110 58 113 158 155 175 61 66 63 99 147 140 180 214 101 85 232 78 150 159
0 0 8 0 0 0 0 0 0 0 0 5 0 0 0 40 48 16 52 50 0 0 0 0 10 9 201 142 151 298 328 145 166 47 137 51 35 106 120 124 184 87 67 135 211 150 159 276 195
0 0 0 0 0 0 0 0 0 0 1 0 0 0 0 46 58 42 60 28 0 0 0 9 59 0 131 199 48 273 238 158 153 22 50 68 72 40 95 131 143 131 104 320 385 219 200 368 396
0 1 0 0 0 0 0 0 0 0 0 0 0 6 48 90 68 39 26 18 0 0 0 0 39 0 0 21 33 151 66 27 91 11 13 26 61 55 42 131 284 451 307 433 483 367 173 294 606
0 0 0 0 0 0 0 0 0 0 0 0 0 3 139 93 49 21 24 1 0 0 0 0 4 0 0 0 12 29 121 4 0 0 0 8 54 67 81 193 301 358 419 342 486 263 413 362 287
0 0 0 0 0 0 0 1 1 0 0 0 0 115 191 74 17 13 15 0 0 0 0 0 0 0 0 0 7 0 215 99 102 47 0 4 59 66 108 171 278 361 397 285 264 283 380 449 201
0 0 0 0 0 0 0 0 12 0 0 5 59 211 299 67 0 1 0 0 0 0 0 0 0 0 0 0 0 0 202 299 147 281 139 23 86 121 102 163 224 337 353 325 497 489 393 215 11
0 0 0 0 0 0 0 0 2 0 10 190 166 334 274 39 0 0 0 0 0 0 0 0 0 0 0 0 0 0 111 162 192 217 102 10 51 89 140 55 259 300 324 177 413 324 203 175 17
0 0 0 0 0 0 0 11 0 0 2 75 184 296 93 0 0 0 0 0 0 0 0 0 0 0 0 0 0 0 104 202 215 153 179 64 21 158 163 233 213 314 418 430 223 83 35 13 17

GFSSGP_con_mlcape_003.txt.gz
CAPE
0 0 0 0 0 0 0 0 0 1 0 0 0 0 0 0 0 0 0 0 40 0 0 11 0 0 0 0 10 62 121 152 242 341 290 48 0 0 0 0 0 0 0 0 0 0 0 0 5
0 0 0 0 0 0 4 0 10 0 0 0 0 0 0 0 0 0 0 0 31 2 21 38 36 1 0 0 24 159 434 521 457 627 371 180 14 1 0 34 36 17 4 3 0 0 0 0 0
0 0 0 36 68 1 11 4 0 0 0 0 0 0 0 0 0 0 0 0 21 27 45 291 238 101 58 59 193 474 607 637 366 397 218 38 1 29 69 78 94 97 70 29 9 0 2 0 1
0 12 25 2 13 2 0 0 0 0 0 0 0 0 0 0 0 0 0 0 0 0 239 524 409 240 400 816 1190 1044 847 727 635 464 46 7 11 35 66 3 54 60 83 85 47 2 0 3 10
1 7 0 11 5 6 0 0 0 0 0 0 0 0 0 0 0 0 0 0 0 4 199 425 303 713 1065 1254 1193 983 938 648 429 259 105 38 57 81 103 100 51 45 76 78 82 17 5 17 133
2 0 0 0 0 7 0 2 0 0 0 0 0 0 0 0 0 0 0 0 0 0 0 107 176 2 0 0 0 204 199 124 40 6 0 0 2 2 5 11 5 3 1 4 100 120 13 41 188
0 0 0 0 0 0 5 1 0 0 0 0 0 0 0 0 0 0 0 0 0 0 0 0 0 0 0 0 0 0 0 0 0 0 0 0 0 0 1 1 4 9 9 11 162 270 51 42 47
0 0 0 0 0 0 0 0 0 0 0 0 0 0 0 0 0 0 0 0 0 0 0 0 0 0 0 0 0 0 0 0 0 0 0 3 0 0 0 0 1 10 14 122 330 349 116 61 59
0 0 0 0 0 0 0 0 0 0 0 0 0 0 0 0 0 0 0 0 0 0 0 0 0 0 0 0 0 0 0 0 0 0 0 1 1 0 4 7 32 177 255 271 463 442 251 134 60
0 0 0 0 0 0 0 0 0 0 0 0 0 0 0 0 0 0 0 0 0 0 0 0 0 0 0 0 0 0 0 0 0 0 0 0 0 0 0 4 22 123 298 382 464 446 203 221 52
1 0 0 0 0 0 0 0 0 0 0 0 0 0 0 0 0 0 0 0 0 0 0 0 0 0 0 0 0 0 0 0 0 0 0 0 0 0 0 2 18 63 118 280 489 361 371 310 43
1 0 0 0 0 0 0 0 0 0 0 0 0 0 0 0 0 0 0 0 0 0 0 0 0 0 0 0 0 0 0 0 0 0 0 0 0 0 3 1 10 13 75 153 278 294 261 228 46
2 0 0 0 0 0 0 0 0 0 0 0 0 0 0 0 0 0 0 0 0 0 0 0 0 0 0 0 0 0 0 0 0 0 0 1 0 0 16 15 5 10 60 73 149 180 180 99 37
0 0 0 0 0 0 0 0 0 0 0 0 0 0 0 0 0 0 0 0 0 0 0 0 0 0 0 0 0 0 0 0 0 0 0 0 9 12 13 12 0 0 0 73 80 114 185 130 57
0 0 0 0 0 0 0 0 0 0 0 0 0 0 0 0 0 0 0 0 0 0 0 0 0 0 0 0 0 0 0 0 0 0 0 0 12 9 8 16 0 4 0 7 142 140 132 86 77
0 0 0 0 0 0 0 0 0 0 0 0 0 0 0 0 0 0 0 0 0 0 0 0 0 0 0 1 7 3 0 1 0 1 0 0 6 0 0 33 0 2 0 8 76 97 131 147 150
0 0 0 0 0 0 0 0 0 0 0 0 0 0 0 0 0 0 0 0 0 0 0 0 0 0 0 32 12 0 2 23 67 27 0 0 0 0 20 31 20 35 0 4 29 4 80 120 118
0 0 0 0 0 0 0 0 0 0 0 0 0 0 0 0 0 0 0 0 0 0 0 2 0 21 91 20 0 27 36 147 183 78 5 0 0 0 83 65 28 5 0 1 19 1 106 192 192
0 0 0 0 0 0 0 0 0 0 0 0 1 0 0 0 0 0 0 0 0 0 0 18 35 24 69 0 45 0 11 6 59 63 36 20 12 4 63 35 46 3 0 0 0 80 124 187 130
0 0 0 0 0 0 1 1 6 2 0 8 0 0 0 0 0 0 0 0 0 0 0 49 102 44 7 0 213 40 74 30 94 48 58 38 27 48 77 60 49 11 16 7 18 62 127 135 175
0 0 0 0 0 0 0 0 0 0 0 0 0 0 0 0 0 0 0 0 0 0 0 72 46 23 0 38 145 16 13 32 44 39 27 6 16 62 70 44 53 42 68 20 16 46 67 108 212
0 0 0 0 0 0 0 0 0 0 0 0 0 0 0 0 0 0 0 0 0 0 0 1 50 0 0 1 3 169 74 33 35 24 29 17 25 30 65 39 74 42 31 63 83 89 100 83 116
0 0 0 0 0 0 0 0 0 0 0 0 0 0 0 0 0 0 0 3 0 0 0 25 0 0 44 39 31 247 161 55 28 0 11 2 41 89 78 141 82 85 94 58 181 28 118 0 116
0 0 0 0 0 0 0 0 0 0 0 0 0 0 0 0 0 0 0 1 0 0 0 0 0 0 41 191 24 58 13 17 5 0 2 10 48 51 90 131 95 32 80 73 136 32 114 0 111
0 0 0 0 0 0 0 0 0 0 0 0 0 0 0 0 0 0 0 0 0 0 0 0 2 0 0 15 1 6 0 0 0 0 0 8 15 22 21 111 175 73 56 101 129 117 145 88 163
0 0 0 0 0 0 0 0 0 0 0 0 0 0 0 0 0 0 1 0 0 0 0 0 0 0 0 0 0 10 27 0 0 0 0 2 1 10 0 77 134 139 133 174 89 72 172 157 215
0 0 0 0 0 0 0 0 0 0 0 0 0 0 0 0 0 0 0 0 0 0 0 0 0 0 0 0 0 31 36 14 16 0 0 1 1 27 97 161 239 240 225 116 83 125 248 229 238
0 0 0 0 0 0 0 0 0 0 0 0 0 3 0 0 0 0 0 0 0 0 0 0 0 0 0 0 0 33 63 77 58 47 10 20 0 1 83 174 280 304 259 166 187 198 141 67 145
0 1 0 0 0 0 0 0 0 0 0 0 7 14 0 0 0 0 0 0 0 0 0 0 0 0 0 0 0 4 212 100 165 59 8 12 0 22 39 160 239 219 219 109 113 40 67 52 2
0 0 0 0 0 0 0 0 0 0 0 14 86 54 0 0 0 0 0 0 0 0 0 0 0 0 0 0 0 1 99 165 99 141 38 56 69 39 59 131 158 208 224 191 151 99 36 24 15

GFSSGP_con_mlcape_006.txt.gz
CAPE
0 0 0 0 0 0 0 1 0 0 0 0 0 0 0 0 0 0 0 29 6 0 0 34 4 0 0 0 16 27 36 13 9 64 68 43 0 0 0 0 0 0 0 0 0 0 0 0 3
0 0 0 0 0 5 0 0 0 0 0 0 0 0 0 0 0 0 1 0 0 0 0 26 61 56 55 42 134 236 195 222 242 379 337 412 168 14 0 1 2 2 2 6 3 0 0 0 0
0 0 0 11 37 0 1 1 0 0 0 0 0 0 0 0 0 0 0 0 0 0 0 2 138 115 89 118 336 389 383 411 610 662 536 291 139 76 44 48 53 42 51 37 13 5 1 0 1
0 0 0 5 0 0 7 0 0 0 0 0 0 0 0 0 0 0 0 0 0 0 0 38 254 194 360 412 492 479 525 956 823 612 439 162 41 53 91 50 15 43 8 6 28 37 1 2 2
0 0 0 0 0 4 0 0 0 0 0 0 0 0 0 0 0 0 0 0 0 29 65 372 435 439 478 658 855 1149 1295 1025 823 674 426 138 44 56 53 27 9 13 10 12 69 58 83 0 0
0 0 0 0 0 0 0 0 0 0 0 0 0 0 0 0 0 0 0 0 6 105 474 621 501 361 223 497 332 110 117 250 318 199 125 69 64 64 49 49 4 2 5 25 76 66 109 54 47
0 0 0 0 0 0 0 0 0 0 0 0 0 0 0 0 0 0 0 0 17 178 191 212 344 256 56 0 0 0 0 0 0 0 0 0 0 2 6 5 7 12 13 36 40 53 133 140 72
0 0 0 0 0 0 0 0 0 0 0 0 0 0 0 0 0 0 0 0 0 0 5 7 5 2 0 0 0 0 0 0 0 0 0 0 0 2 1 5 12 16 9 12 15 68 119 121 114
0 0 0 0 0 0 0 0 0 0 0 0 0 0 0 0 0 0 0 0 0 0 0 0 0 0 0 0 0 0 0 0 0 0 0 0 0 0 0 0 15 43 109 71 71 151 179 155 173
0 0 0 0 0 0 0 0 0 0 0 0 0 0 0 0 0 0 0 0 0 0 0 0 0 0 0 0 0 20 0 0 3 0 0 0 0 0 0 0 6 9 56 71 179 252 366 416 127
0 0 0 0 0 0 0 0 0 0 0 0 0 0 0 0 0 0 0 0 0 0 0 0 0 0 0 0 0 0 0 0 0 0 0 0 0 0 0 0 0 0 0 2 133 318 458 280 174
0 0 0 0 0 0 0 0 0 0 0 0 0 0 0 0 0 0 0 0 0 0 0 0 0 0 0 0 0 0 0 0 0 0 0 0 0 0 0 1 1 10 21 0 63 134 192 265 325
0 0 0 0 0 0 0 0 0 0 0 0 0 0 0 0 0 0 0 0 0 0 0 0 0 0 0 0 0 0 0 0 0 0 0 0 0 0 3 26 25 5 10 0 0 72 192 238 286
0 0 0 0 0 0 0 0 0 0 0 0 0 0 0 0 0 0 0 0 0 0 0 0 0 0 0 0 0 0 0 0 0 0 0 0 0 2 13 0 0 0 0 0 0 54 92 142 157
0 0 0 0 0 0 0 0 0 0 0 0 0 0 0 0 0 0 0 0 0 0 0 0 0 0 0 0 0 0 0 0 0 0 0 0 0 2 0 0 0 0 0 0 0 18 61 89 125
0 0 0 0 0 0 0 0 0 0 0 0 0 0 0 0 0 0 0 0 0 0 0 0 0 0 0 0 0 2 1 0 0 0 0 0 0 0 0 0 0 0 0 0 0 45 96 110 92
0 0 0 0 0 0 0 0 0 0 0 0 0 0 0 0 0 0 0 0 0 0 0 0 0 0 0 0 6 2 0 0 0 1 0 0 0 0 0 0 0 0 0 0 0 36 91 102 106
0 0 0 0 0 0 0 0 0 0 0 0 0 0 0 0 0 0 0 0 0 0 0 0 0 4 5 17 0 0 0 0 31 31 15 2 0 0 0 1 14 1 0 0 0 12 5 13 50
0 0 0 0 0 0 0 0 0 0 0 0 0 0 0 0 0 0 0 0 0 0 0 0 0 7 14 0 0 0 0 0 2 32 26 18 0 0 0 33 9 2 0 0 0 0 0 0 48
0 0 0 0 0 0 0 0 0 0 0 0 0 0 0 0 0 0 0 0 0 0 0 0 11 6 25 0 2 1 0 0 11 40 37 36 36 50 32 31 22 2 0 0 0 0 16 19 71
0 0 0 0 0 0 0 0 0 0 0 0 0 0 0 0 0 0 0 0 0 0 0 4 29 28 0 0 0 0 0 6 8 23 20 10 6 17 41 37 17 0 0 0 0 14 50 79 119
0 0 0 0 0 0 0 0 0 0 0 0 0 0 0 0 0 0 0 0 0 0 0 11 13 2 0 0 0 19 59 23 2 0 0 1 3 3 39 10 1 3 1 0 2 46 45 42 95
0 0 0 0 0 0 0 0 0 0 0 0 0 0 0 0 0 0 0 0 0 0 0 0 1 0 0 0 0 74 2 0 0 0 0 3 29 38 60 19 27 8 33 26 62 34 28 53 33
0 0 0 0 0 0 0 0 0 0 0 0 0 0 0 0 0 0 0 0 0 0 0 0 0 0 0 8 0 0 0 0 0 0 0 2 7 38 39 74 19 18 15 45 14 24 34 0 94
0 0 0 0 0 0 0 0 0 0 0 0 0 0 0 0 0 0 0 0 0 0 0 0 0 0 0 0 0 0 0 0 0 0 0 0 2 5 20 71 68 18 57 43 33 0 18 0 102
0 0 0 0 0 0 0 0 0 0 0 0 0 0 0 0 0 0 0 0 0 0 0 0 0 0 0 0 0 0 0 0 0 0 4 0 0 0 8 44 44 50 69 105 41 58 80 11 28
0 0 0 0 0 0 0 0 0 0 0 0 0 0 0 0 0 0 0 0 0 0 0 0 0 0 0 0 0 0 0 0 0 0 0 0 0 0 0 12 13 53 103 50 70 104 71 88 154
0 0 0 0 0 0 0 0 0 0 0 0 0 0 0 0 0 0 0 0 0 0 0 0 0 0 0 0 0 3 8 8 9 0 1 0 0 0 14 69 61 55 82 76 59 34 87 120 108
0 0 0 0 0 0 0 0 0 0 0 0 0 0 0 0 0 0 0 0 0 0 0 0 0 0 0 0 0 8 39 50 47 0 0 3 0 4 26 48 98 91 84 66 30 52 87 99 91
0 0 0 0 0 0 0 0 0 0 0 0 0 0 0 0 0 0 0 0 0 0 0 0 0 0 0 0 0 3 48 52 18 0 0 0 0 0 27 78 75 69 54 29 27 21 0 10 37

GFSSGP_con_mlcape_009.txt.gz
CAPE
0 0 0 0 0 0 0 0 0 0 0 0 0 0 0 0 0 0 0 26 0 0 0 70 65 0 0 0 0 0 0 0 0 0 0 0 0 0 0 0 0 0 0 0 0 0 0 0 0
0 0 0 0 0 0 0 0 1 0 0 0 0 0 0 0 0 0 0 38 1 0 0 5 66 11 0 0 9 36 35 24 7 9 14 90 175 110 0 0 4 3 4 6 5 0 0 0 0
0 0 0 3 0 0 0 12 7 0 0 0 0 0 0 0 0 0 0 36 0 0 0 0 157 31 0 50 180 203 271 224 318 318 361 332 312 167 64 13 4 43 55 19 11 10 0 0 1
0 0 0 0 0 6 36 13 0 0 0 0 0 0 0 0 0 0 0 0 0 0 0 9 102 64 217 394 426 523 526 573 561 621 544 450 259 84 75 92 75 71 14 20 25 20 27 6 1
0 0 0 0 0 0 0 1 0 0 0 0 0 0 0 0 0 0 0 0 0 0 0 21 182 343 429 506 532 527 521 621 886 771 678 470 276 109 73 75 73 75 36 11 16 20 62 87 24
0 0 0 0 0 0 0 0 0 0 0 0 0 0 0 0 0 0 0 5 3 0 14 71 472 458 560 586 632 616 667 984 879 768 505 307 199 183 121 104 54 25 20 40 42 24 75 62 71
0 0 0 0 0 0 0 0 0 0 0 0 0 0 0 0 0 0 0 14 8 41 126 226 578 629 628 650 575 401 91 21 116 92 1 0 0 0 0 3 7 9 23 41 69 79 72 71 70
0 0 0 0 0 0 0 0 0 0 0 0 0 0 0 0 0 0 1 27 78 257 314 492 453 493 517 523 230 141 10 7 0 0 0 0 0 0 0 2 9 13 7 8 24 53 78 97 67
0 0 0 0 0 0 0 0 0 0 0 0 0 0 0 0 0 0 0 0 7 210 366 340 187 177 107 25 94 152 75 0 0 0 0 0 0 0 0 0 0 2 25 65 34 8 75 96 107
0 0 0 0 0 0 0 0 0 0 0 0 0 0 0 0 0 0 0 0 0 4 15 60 72 8 7 4 0 37 0 0 0 5 0 0 0 0 0 0 0 19 23 32 65 56 163 202 143
0 0 0 0 0 0 0 0 0 0 0 0 0 0 0 0 0 0 0 0 0 0 0 0 0 3 0 0 0 0 1 0 0 0 0 0 0 0 0 0 0 0 0 0 0 6 136 200 121
0 0 0 0 0 0 0 0 0 0 0 0 0 0 0 0 0 0 0 0 0 0 0 0 0 0 0 0 0 0 0 0 0 0 0 0 0 0 0 0 0 1 1 0 0 0 50 154 187
0 0 0 0 0 0 0 0 0 0 0 0 0 0 0 0 0 0 0 0 0 0 0 0 0 0 0 0 0 0 0 0 0 0 0 0 0 0 0 0 1 4 4 0 0 0 8 49 109
0 0 0 0 0 0 0 0 0 0 0 0 0 0 0 0 0 0 0 0 0 0 0 0 0 0 0 0 0 0 0 0 0 0 0 0 0 0 0 2 1 0 0 0 0 0 6 37 54
0 0 0 0 0 0 0 0 0 0 0 0 0 0 0 0 0 0 0 0 0 0 0 0 0 0 0 0 0 0 0 0 0 0 0 0 0 0 0 0 0 0 0 0 0 0 0 24 24
0 0 0 0 0 0 0 0 0 0 0 0 0 0 0 0 0 0 0 0 0 0 0 0 0 0 0 0 0 0 0 0 0 0 0 0 0 0 0 0 0 0 0 0 0 0 0 1 14
0 0 0 0 0 0 0 0 0 0 0 0 0 0 0 0 0 0 0 0 0 0 0 0 0 0 0 0 0 0 0 0 0 0 0 0 0 0 0 0 0 0 0 0 0 0 5 16 29
0 0 0 0 0 0 0 0 0 0 0 0 0 0 0 0 0 0 0 0 0 0 0 0 0 0 0 1 6 0 0 0 0 2 0 0 0 1 0 0 0 0 0 0 0 0 17 56 63
0 0 0 0 0 0 0 0 0 0 0 0 0 0 0 0 0 0 0 0 0 0 0 0 0 0 0 7 0 0 0 0 0 0 10 9 2 0 0 0 2 3 0 0 0 0 5 12 19
0 0 0 0 0 0 0 0 0 0 0 0 0 0 0 0 0 0 0 0 0 0 0 0 0 0 1 0 0 0 0 0 0 0 20 25 23 7 18 9 16 0 0 0 0 0 0 0 0
0 0 0 0 0 0 0 0 0 0 0 0 0 0 0 0 0 0 0 0 0 0 0 0 0 0 5 0 0 0 0 0 0 0 0 7 0 2 41 37 12 0 0 0 0 0 2 5 0
0 0 0 0 0 0 0 0 0 0 0 0 0 0 0 0 0 0 0 0 0 0 0 0 0 0 0 0 0 2 13 0 0 0 0 0 0 20 33 26 1 0 0 0 0 0 10 23 53
0 0 0 0 0 0 0 0 0 0 0 0 0 0 0 0 0 0 0 0 0 0 0 0 0 0 0 0 0 13 0 0 0 0 0 0 2 25 31 7 0 0 0 0 0 0 0 17 32
0 0 0 0 0 0 0 0 0 0 0 0 0 0 0 0 0 0 0 0 0 0 0 0 0 0 0 0 0 0 0 0 0 0 0 0 0 18 18 19 1 4 0 6 0 0 3 17 22
0 0 0 0 0 0 0 0 0 0 0 0 0 0 0 0 0 0 0 0 0 0 0 0 0 0 0 0 0 0 0 0 0 0 0 0 0 2 16 9 0 1 11 7 0 0 7 0 47
0 0 0 0 0 0 0 0 0 0 0 0 0 0 0 0 0 0 0 0 0 0 0 0 0 0 0 0 0 0 0 0 0 0 0 0 0 0 0 0 0 7 42 34 11 0 1 0 35
0 0 0 0 0 0 0 0 0 0 0 0 0 0 0 0 0 0 0 0 0 0 0 0 0 0 0 0 0 0 0 0 0 0 0 0 0 0 0 0 0 27 39 6 31 34 35 6 26
0 0 0 0 0 0 0 0 0 0 0 0 0 0 0 0 0 0 0 0 0 0 0 0 0 0 0 0 0 0 4 0 0 0 0 0 0 0 0 0 0 1 11 26 31 28 36 46 53
0 0 0 0 0 0 0 0 0 0 0 0 0 0 0 0 0 0 0 0 0 0 0 0 0 0 0 0 0 1 1 10 7 0 0 0 0 0 0 0 0 0 5 20 14 30 51 41 23
0 0 0 0 0 0 0 0 0 0 0 0 0 0 0 0 0 0 0 0 0 0 0 0 0 0 0 0 0 2 1 16 9 0 0 0 0 0 0 13 16 3 2 1 12 39 42 58 12

GFSSGP_con_mlcape_015.txt.gz
CAPE
0 0 0 0 0 0 0 0 0 0 0 0 0 0 0 0 0 0 0 0 4 0 0 23 92 18 0 0 0 0 0 0 0 0 0 0 0 0 0 0 0 0 0 0 0 0 0 0 0
0 0 0 0 0 0 0 0 0 0 0 0 0 0 0 0 0 0 0 0 0 0 0 16 101 19 0 0 0 0 0 0 0 0 0 0 0 0 0 0 0 0 0 0 0 6 10 3 1
0 0 0 0 0 0 0 0 0 0 0 0 0 0 0 0 0 0 0 12 0 0 0 111 138 13 0 0 0 0 0 0 0 0 0 0 0 0 29 88 62 6 1 0 4 24 16 9 6
0 0 0 0 0 0 0 0 0 0 0 0 0 0 0 0 0 0 0 31 0 0 46 225 182 67 39 0 10 62 65 15 3 35 91 85 112 272 303 296 276 134 84 49 62 14 10 79 141
0 0 0 0 0 0 0 0 0 0 0 0 0 0 0 0 0 0 0 66 0 0 0 315 269 184 116 103 206 219 117 131 211 361 380 414 521 485 429 355 284 263 148 119 71 48 21 2 0
0 0 0 0 0 0 0 0 0 0 0 0 0 0 0 0 0 0 11 71 92 50 35 292 626 332 268 279 370 349 327 415 564 624 625 689 751 580 482 350 298 275 229 185 125 62 34 26 36
0 0 0 0 0 0 0 0 0 0 0 0 0 0 0 0 0 0 8 85 81 195 170 298 800 695 562 492 440 487 593 660 861 805 919 917 670 463 67 2 0 1 7 43 68 40 55 66 64
0 0 0 0 0 0 0 0 0 0 0 0 0 0 0 0 0 0 9 42 77 159 297 370 734 937 869 817 774 718 793 807 732 997 582 373 56 0 0 0 0 0 0 7 10 14 54 41 37
0 0 0 0 0 0 0 0 0 0 0 0 0 0 0 0 0 0 4 37 77 93 197 334 484 778 843 864 994 1016 1085 1018 970 499 381 49 2 5 0 0 0 0 0 2 5 12 22 44 25
0 0 0 0 0 0 0 0 0 0 0 0 0 0 0 0 0 0 1 13 37 72 118 215 325 620 723 891 1070 1150 986 648 468 356 174 112 150 36 0 0 0 0 1 6 22 33 41 5 61
0 0 0 0 0 0 0 0 0 0 0 0 0 0 0 0 0 0 0 19 10 69 192 238 351 555 679 811 874 891 597 442 469 265 160 108 54 3 0 0 0 0 0 0 0 0 0 0 48
0 0 0 0 0 0 0 0 0 0 0 0 0 0 0 0 0 0 0 0 24 39 126 379 430 449 570 688 544 329 280 161 77 104 98 64 24 10 0 0 0 0 0 0 1 13 29 30 72
0 0 0 0 0 0 0 0 0 0 0 0 0 0 0 0 0 0 0 0 1 12 52 302 417 404 554 399 237 82 61 48 49 44 4 0 0 0 0 0 0 3 2 13 22 34 44 57 106
0 0 0 0 0 0 0 0 0 0 0 0 0 0 0 0 0 0 0 0 0 0 7 64 270 482 419 170 82 22 2 2 25 8 0 0 0 0 0 0 0 14 28 18 22 13 39 52 98
0 0 0 0 0 0 0 0 0 0 0 0 0 0 0 0 0 0 0 0 0 0 0 2 131 326 201 91 43 0 0 0 6 3 13 0 0 0 9 46 47 43 47 23 35 29 37 66 78
0 0 0 0 0 0 0 0 0 0 0 0 0 0 0 0 0 0 0 0 0 0 0 0 2 78 92 39 0 0 0 3 13 39 42 4 4 22 49 56 38 52 31 19 35 27 7 36 55
0 0 0 0 0 0 0 0 0 0 0 0 0 0 0 0 0 0 0 0 0 0 0 0 0 16 5 1 0 0 0 10 40 50 48 36 24 19 34 64 56 40 15 6 54 48 13 11 41
0 0 0 0 0 0 0 0 0 0 0 0 0 0 0 0 0 0 0 0 0 0 0 0 0 0 0 0 0 0 4 16 63 50 63 60 57 41 63 55 29 7 1 18 87 58 34 33 76
0 0 0 0 0 0 0 0 0 0 0 0 0 0 0 0 0 0 0 0 0 0 0 0 0 0 0 0 0 0 6 60 55 87 90 105 160 105 130 27 1 0 0 72 122 64 32 36 155
0 0 0 0 0 0 0 0 0 0 0 0 0 0 0 0 0 0 0 0 0 0 0 0 0 0 0 0 0 4 41 116 88 115 138 204 238 256 163 50 6 23 89 147 111 53 38 89 181
0 0 0 0 0 0 0 0 0 0 0 0 0 0 0 0 0 0 0 0 0 0 0 0 0 0 0 0 0 0 15 38 76 86 116 118 145 153 133 151 127 158 205 166 109 46 61 85 201
0 0 0 0 0 0 0 0 0 0 0 0 0 0 0 0 0 0 0 0 0 0 0 0 0 0 0 0 0 2 118 95 0 27 31 43 14 70 157 214 282 300 259 178 96 122 115 185 170
0 0 0 0 0 0 0 0 0 0 0 0 0 0 0 0 0 0 0 0 0 0 0 0 0 0 0 0 0 46 124 0 6 0 0 44 51 91 124 204 245 258 190 218 110 81 124 161 157
0 0 0 0 0 0 0 0 0 0 0 0 0 0 0 0 0 0 0 0 0 0 0 0 0 0 0 0 0 24 49 3 0 0 26 56 86 165 191 132 211 192 236 212 92 148 132 242 155
0 0 0 0 0 0 0 0 0 0 0 0 0 0 0 0 0 0 0 0 0 0 0 0 0 0 0 0 0 0 0 0 0 0 16 54 61 151 228 200 179 228 220 236 182 141 148 186 181
0 0 0 0 0 0 0 0 0 0 0 0 0 0 0 0 0 0 0 0 0 0 0 0 0 0 0 0 0 0 0 0 0 0 14 1 78 179 207 166 191 271 191 166 159 237 173 130 211
0 0 0 0 0 0 0 0 0 0 0 0 0 0 0 0 0 0 0 0 0 0 0 0 0 0 0 0 0 0 0 0 0 0 0 7 17 83 175 162 155 269 202 232 262 227 188 75 190
0 0 0 0 0 0 0 0 0 0 0 0 0 0 0 0 0 0 0 0 0 0 0 0 0 0 0 0 0 0 0 0 0 0 1 3 24 99 125 70 148 199 261 106 97 49 59 123 286
0 0 0 0 0 0 0 0 0 0 0 0 0 0 0 0 0 0 0 0 0 0 0 0 0 0 0 0 0 0 3 4 1 0 0 1 21 42 52 62 57 129 93 38 73 57 57 66 142
0 0 0 0 0 0 0 0 0 0 0 0 0 0 0 0 0 0 0 0 0 0 0 0 0 0 0 0 0 2 50 49 5 0 0 1 0 23 58 67 40 66 35 21 17 12 7 23 39

GFSSGP_con_mlcape_021.txt.gz
CAPE
0 0 0 0 0 0 0 0 0 5 0 0 0 0 0 0 0 0 0 24 11 6 243 64 12 0 0 0 0 0 0 0 0 0 0 0 0 0 0 0 0 0 0 0 0 0 0 0 0
0 0 0 0 0 0 0 0 25 7 21 0 0 0 0 0 0 0 7 42 20 6 285 97 58 14 1 0 0 0 0 0 0 0 0 0 0 0 0 0 0 0 0 0 0 0 5 5 0
0 0 0 0 0 0 37 8 9 39 0 0 0 0 0 0 0 0 32 58 30 0 305 179 159 61 37 5 0 0 0 0 0 0 0 0 0 2 10 22 31 34 65 36 10 4 0 22 47
0 0 0 0 0 20 10 44 58 0 32 0 0 0 0 0 0 0 0 43 36 7 119 364 320 131 97 40 0 0 0 0 0 0 0 1 11 27 42 79 138 238 284 277 164 77 31 150 167
0 0 0 0 0 0 6 0 56 69 47 22 3 0 0 0 0 0 0 43 51 37 19 501 412 206 152 105 24 1 0 0 0 3 24 56 63 112 222 357 546 506 472 405 341 254 156 184 124
0 0 0 0 0 0 0 0 0 0 22 20 1 0 0 0 0 0 0 41 53 39 23 143 636 438 213 210 99 37 0 0 1 50 68 124 249 490 678 826 671 671 526 426 354 292 341 197 107
0 0 0 0 0 0 0 0 0 0 3 7 0 0 0 35 17 0 10 44 98 86 73 74 1489 1015 650 476 308 161 33 23 36 88 125 321 434 832 963 827 590 330 117 95 85 103 159 267 180
0 0 0 0 0 0 8 0 0 0 6 2 0 0 0 9 0 0 0 5 44 89 88 95 538 1642 1185 594 812 475 226 119 188 185 377 571 609 990 737 249 0 2 2 0 0 30 77 122 144
0 0 0 0 0 0 1 2 1 1 0 0 0 0 0 0 0 0 0 0 28 44 85 166 155 776 1156 607 687 898 658 503 552 587 758 551 465 98 432 289 167 25 9 0 0 0 0 25 31
0 0 0 0 2 4 3 1 7 3 10 0 0 0 0 10 0 0 0 0 2 42 69 133 254 355 1002 572 565 1148 635 568 565 560 459 842 423 325 417 308 43 12 3 0 0 0 12 24 0
0 0 0 0 10 17 11 2 8 12 13 17 0 0 0 0 0 3 0 0 0 1 54 143 527 654 902 740 490 1161 800 662 776 761 812 579 388 384 503 469 417 256 102 137 43 39 16 3 6
0 0 0 0 15 11 16 16 1 19 13 6 0 0 0 0 0 0 0 0 0 6 5 49 307 931 1150 837 511 752 1001 783 713 780 877 676 510 561 555 391 352 258 142 149 39 21 37 28 26
0 0 1 3 0 0 0 9 0 3 0 0 0 0 0 0 0 0 0 0 0 3 1 0 380 1103 1526 1481 653 839 903 637 654 491 460 576 552 551 487 472 435 316 149 87 100 25 24 13 42
0 0 0 0 0 0 1 0 1 0 0 0 0 0 0 0 0 0 0 0 0 3 8 35 499 1190 1486 1596 1431 1191 1049 554 469 326 261 545 692 554 493 564 439 327 229 137 101 15 26 30 34
0 0 0 0 0 0 5 0 0 0 0 0 0 0 0 0 0 0 0 0 0 0 28 192 613 1289 1609 1842 1657 1336 852 513 374 319 236 498 777 686 686 546 591 481 329 228 184 178 26 20 37
0 0 0 0 0 0 10 0 0 0 0 0 0 0 0 0 0 0 0 0 0 0 40 324 345 1059 1787 1828 1738 1311 644 503 207 190 340 729 823 826 742 655 786 615 551 348 106 76 81 16 28
0 0 0 0 0 0 6 0 0 0 0 0 0 0 0 0 0 0 0 0 0 2 74 329 597 753 1714 1876 1650 1215 685 378 187 253 392 543 753 678 742 686 870 682 565 433 135 129 71 31 51
0 0 0 0 0 0 0 0 0 0 0 0 0 0 0 0 0 0 0 0 0 22 126 568 684 994 1660 1733 1490 812 410 341 202 321 395 464 613 564 737 765 797 605 527 405 199 102 71 51 91
0 0 0 0 0 0 0 0 5 0 0 0 0 0 0 0 0 0 0 0 75 57 268 745 708 934 1524 1409 896 453 268 273 237 283 400 493 583 591 659 777 784 653 457 297 116 90 155 134 142
0 0 0 0 0 1 0 0 0 0 0 0 0 0 0 0 0 0 0 204 160 250 415 457 517 976 1325 958 542 261 234 207 227 269 394 558 559 722 819 762 788 615 476 343 187 209 230 226 260
0 0 0 0 0 0 0 0 0 0 0 0 0 0 0 0 0 0 0 316 245 324 394 467 581 1002 865 531 341 213 224 292 384 134 241 494 595 578 760 730 609 578 555 379 296 302 285 224 252
0 0 0 0 0 0 0 0 0 0 0 0 0 0 0 0 0 0 0 370 325 357 409 479 745 714 396 292 341 379 231 73 103 345 146 475 554 407 394 393 490 564 513 551 477 345 268 242 301
0 0 0 0 0 0 0 0 0 0 0 0 0 0 0 0 0 0 95 356 373 327 378 544 592 390 338 382 262 233 64 30 135 46 343 674 630 550 388 357 484 593 600 501 403 305 351 366 426
0 0 0 0 0 0 0 0 0 0 0 0 0 0 0 0 0 13 343 348 286 253 386 452 440 384 391 225 251 286 276 277 173 333 490 540 825 647 548 294 421 524 530 606 476 352 375 423 450
0 0 0 0 0 0 0 0 0 0 0 0 0 0 0 0 37 194 285 217 202 284 332 384 375 428 276 226 209 269 397 540 543 463 377 515 481 629 609 373 527 546 691 718 591 395 420 385 729
0 0 0 0 0 0 0 0 0 0 0 0 0 0 2 98 162 232 215 219 236 260 278 237 311 257 161 137 126 279 462 416 307 397 315 186 444 508 404 464 572 620 641 651 553 448 518 572 421
0 0 0 0 0 0 0 0 0 0 0 0 0 0 10 181 266 248 227 228 226 242 225 264 232 161 122 48 219 291 471 361 577 416 251 275 432 242 325 442 536 446 429 609 630 634 590 648 695
0 0 0 0 0 0 0 5 17 0 0 0 0 0 22 310 288 227 235 242 220 222 244 238 173 132 21 147 212 258 388 458 361 310 186 108 185 52 204 392 458 500 519 605 720 425 612 515 545
0 0 0 0 0 0 0 1 0 2 0 0 1 6 224 332 247 250 216 220 242 239 255 256 121 4 28 142 125 259 240 408 273 215 33 76 110 7 46 129 339 309 421 512 431 563 424 213 70
0 0 0 0 0 0 5 17 0 0 0 0 32 228 366 286 213 191 184 223 243 264 284 206 4 0 34 66 129 119 376 427 326 129 65 21 83 8 25 36 27 238 212 254 242 122 225 120 50

GFSSGP_con_mlcape_024.txt.gz
CAPE
0 0 0 0 0 0 0 0 0 78 9 0 0 0 0 0 0 0 0 0 76 295 40 0 0 0 0 0 0 0 0 0 0 0 0 0 0 0 0 0 0 0 0 0 0 0 0 0 0
0 0 0 0 0 0 0 0 17 0 0 0 0 0 0 0 0 14 5 16 68 405 106 0 0 0 0 0 0 0 0 0 0 0 0 0 0 0 0 0 0 0 0 0 0 0 3 0 0
0 0 0 0 0 0 0 2 0 16 9 0 0 0 0 0 0 1 22 27 82 534 206 92 0 0 0 0 0 0 0 0 0 0 0 0 0 0 0 0 0 16 48 72 57 30 6 8 68
0 0 0 0 0 0 2 2 14 20 2 0 0 0 0 0 0 0 0 23 11 212 547 301 50 0 0 0 0 0 0 0 0 0 0 0 0 0 0 0 24 66 183 268 314 246 144 75 136
0 0 0 0 0 0 0 0 0 22 45 8 4 0 0 0 0 0 0 15 24 6 340 664 276 28 53 23 0 0 0 0 0 0 2 26 1 9 94 150 243 428 445 383 446 422 386 168 200
0 0 0 0 0 0 0 2 0 0 0 0 11 18 0 0 1 0 0 13 12 13 42 798 478 211 94 90 34 2 0 0 0 0 23 33 33 88 264 471 660 663 543 516 408 388 335 322 323
0 0 0 0 0 0 0 0 0 0 0 0 9 0 0 2 31 8 0 2 12 25 35 606 670 545 210 171 114 25 2 0 4 12 47 50 98 217 534 729 806 564 424 203 91 84 113 203 338
0 0 0 0 0 0 0 0 0 0 0 7 0 0 0 0 0 0 4 0 3 108 142 544 702 703 611 560 390 229 54 38 68 76 91 99 217 220 326 359 463 268 95 71 20 3 23 87 152
0 0 0 0 0 0 0 0 0 0 0 0 0 0 0 0 0 0 2 0 0 0 127 646 1128 1418 1166 884 807 724 298 223 286 251 290 341 286 200 432 690 615 331 268 143 62 2 1 10 59
0 0 0 0 0 0 0 0 0 0 0 0 0 0 0 1 0 0 0 0 0 0 0 218 439 1465 1624 1187 736 844 746 712 538 400 492 519 388 499 300 349 556 276 115 69 6 1 3 32 13
0 0 0 0 0 0 0 0 8 5 5 7 16 5 0 0 0 0 0 0 0 0 0 46 270 623 1366 1205 848 1016 774 729 610 492 661 931 970 703 504 364 410 246 168 97 98 52 5 80 53
0 0 0 0 0 0 0 0 8 6 3 21 12 18 1 0 0 0 0 0 0 0 0 62 353 645 958 1237 862 1338 1236 890 761 799 1024 927 770 497 408 468 423 359 400 224 265 187 252 139 169
0 0 0 0 0 0 1 0 2 0 0 1 0 0 2 0 0 0 0 0 0 0 0 20 597 571 969 1277 894 1091 1467 1070 1011 1169 1248 1028 733 511 789 847 763 647 492 283 164 52 43 86 18
0 0 0 0 0 0 2 0 0 0 0 0 0 0 0 0 0 0 0 0 0 0 0 127 933 709 1118 1047 1309 966 1223 1214 1069 995 957 872 683 655 782 753 739 570 360 246 247 229 128 42 63
0 0 0 0 0 0 0 0 0 0 0 0 0 0 3 0 0 0 0 0 0 0 0 98 613 1087 1216 1582 1218 2035 1399 1187 925 636 566 604 620 742 890 820 775 629 551 253 241 227 187 102 12
0 0 0 0 0 0 8 0 0 0 0 0 0 0 0 0 0 0 0 0 0 1 5 92 186 1313 1559 2075 1735 1436 1458 1085 728 551 483 494 908 875 976 903 704 578 653 423 213 104 138 129 40
0 0 0 0 0 0 7 5 0 0 0 2 0 0 0 0 0 0 0 0 0 2 0 126 363 1464 1839 2174 2142 1642 1623 990 645 486 420 640 783 920 932 786 649 953 661 383 292 291 65 61 17
0 0 0 0 0 0 3 5 0 0 0 0 1 1 0 0 0 0 0 0 0 34 124 356 798 1293 2099 2257 2033 1912 1430 834 537 363 430 680 822 866 840 740 834 785 681 422 252 238 112 141 46
0 0 0 0 0 0 2 0 0 0 0 0 1 0 0 0 9 17 0 0 29 92 169 554 973 1550 2223 2175 1915 1773 1199 575 414 404 475 547 670 670 685 677 800 628 590 413 266 240 58 26 73
0 0 0 0 0 0 0 0 0 0 0 1 0 0 0 0 0 1 0 0 216 240 416 910 1273 1507 2135 2081 1769 1391 759 425 436 371 449 575 589 595 528 702 625 669 514 400 205 171 136 73 113
0 0 0 0 0 0 0 0 0 0 0 0 0 0 0 0 0 0 0 52 403 421 655 907 990 1488 1899 1756 1269 864 426 531 401 502 489 613 640 460 393 707 576 506 397 353 189 169 120 115 139
0 0 0 0 0 0 0 0 0 0 0 0 0 0 0 0 0 0 0 396 494 591 662 815 1209 1667 1552 1114 781 405 280 275 382 367 464 744 812 554 489 327 341 449 511 473 466 402 248 210 105
0 0 0 0 0 0 0 0 0 0 0 0 0 0 0 0 0 0 0 571 615 653 769 962 1375 1331 1101 566 398 431 465 380 384 279 446 508 725 625 569 429 530 521 509 472 413 386 249 229 186
0 0 0 0 0 1 0 0 0 0 0 0 0 0 0 0 0 0 388 623 642 671 831 1156 1047 993 530 634 590 308 211 467 423 206 544 456 651 820 657 507 301 342 456 534 416 342 237 267 199
0 0 0 0 0 0 0 0 0 0 0 0 0 0 0 0 1 394 565 644 601 703 917 958 829 720 506 518 401 561 518 440 532 649 453 434 558 603 586 348 165 354 532 586 444 296 248 309 200
0 0 0 0 0 0 0 0 0 0 0 0 0 0 0 6 386 581 591 582 603 772 812 720 821 697 488 407 278 488 554 446 609 559 338 185 329 399 127 406 516 598 637 657 489 338 354 380 179
0 0 0 0 0 0 0 0 0 0 0 0 0 0 7 111 435 548 531 553 692 703 698 714 693 528 381 330 424 467 490 527 281 595 373 224 358 80 322 400 450 467 486 519 492 251 321 607 238
0 0 0 0 0 0 0 0 0 3 0 0 0 0 207 434 493 468 489 641 631 637 703 622 502 363 345 209 477 414 292 469 329 215 103 49 160 108 282 417 529 416 349 526 183 140 308 483 293
0 0 0 0 0 0 0 0 38 20 0 0 0 0 344 508 486 454 516 592 595 549 554 506 402 288 148 385 346 353 321 422 200 30 55 53 25 3 58 220 313 318 253 291 327 438 297 49 9
0 0 0 0 0 0 0 0 31 1 0 0 0 28 465 477 426 427 470 497 489 515 488 413 245 92 254 213 368 297 582 455 220 86 11 0 6 11 23 37 39 251 204 63 199 108 140 13 0

GFSSGP_con_mlcape_027.txt.gz
CAPE
0 0 0 0 0 0 0 0 0 0 0 0 0 0 0 0 0 0 0 87 107 0 0 0 0 0 0 0 0 0 0 0 0 0 0 0 0 0 0 0 0 0 0 0 0 0 0 0 0
0 0 0 0 0 0 0 0 0 4 1 0 0 0 0 0 0 0 1 93 55 1 0 0 0 0 0 0 0 0 0 0 0 0 0 0 0 0 0 0 0 0 0 0 0 0 0 0 0
0 0 0 0 0 0 0 0 5 20 45 2 0 0 0 0 0 5 2 190 114 0 0 0 0 0 0 0 0 0 0 0 0 0 0 0 0 0 0 0 0 0 0 17 32 42 33 4 8
0 0 0 0 0 0 0 0 0 4 0 0 0 0 0 0 0 0 96 109 115 61 0 0 0 0 0 0 0 0 0 0 0 0 0 0 0 0 0 0 0 0 34 142 219 282 206 139 56
0 0 0 0 0 0 0 0 5 11 19 30 9 0 0 0 0 0 0 178 52 69 10 0 0 0 0 0 0 0 0 0 0 0 0 9 17 27 30 32 102 201 301 329 260 403 449 368 294
0 0 0 0 0 0 0 0 0 11 0 0 0 5 0 0 0 0 0 0 51 34 28 87 7 0 0 0 0 0 0 0 0 2 11 19 35 36 45 120 246 451 586 397 414 348 407 395 335
0 0 0 0 0 0 0 0 0 0 0 0 0 0 0 0 0 0 0 0 0 95 58 208 118 10 0 0 0 0 0 0 0 23 31 55 57 57 70 189 381 690 597 358 175 100 116 151 262
0 0 0 0 0 0 0 0 0 0 0 0 0 0 0 0 0 0 0 0 0 85 224 175 231 218 4 0 0 0 0 0 2 43 52 93 108 121 119 98 318 539 368 157 41 34 23 32 135
0 0 0 0 0 0 0 0 0 0 0 0 0 0 0 0 0 0 0 0 0 26 290 323 253 283 251 55 113 55 9 23 74 83 88 206 151 142 53 318 517 529 357 190 153 130 32 0 40
0 0 0 0 0 0 0 0 0 0 0 0 0 0 0 0 0 0 0 0 0 0 224 468 322 267 348 325 279 240 67 181 295 242 186 257 143 84 100 361 657 680 486 433 266 165 11 46 0
0 0 0 0 0 0 0 0 0 0 0 16 1 0 0 0 0 0 0 0 0 0 0 361 451 373 451 586 543 483 174 138 417 324 209 237 151 208 381 257 486 493 538 291 257 126 45 3 2
0 0 0 0 0 0 0 0 0 0 0 0 0 0 0 0 0 0 0 0 0 0 0 47 649 683 813 874 647 662 411 295 232 270 180 282 390 512 549 348 334 364 319 207 52 121 118 20 69
0 0 0 0 0 0 0 0 0 0 0 0 0 0 0 0 0 0 0 0 0 0 0 0 243 916 1043 863 780 796 698 576 422 302 302 447 662 631 363 200 235 304 267 211 199 220 94 133 76
0 0 0 0 0 0 0 0 0 0 0 0 0 0 0 0 0 0 0 0 0 0 0 0 178 718 1108 930 776 849 866 745 625 670 606 702 710 546 398 493 609 430 296 190 246 157 12 1 4
0 0 0 0 0 0 0 0 0 0 0 0 0 0 0 0 0 0 0 0 0 5 0 0 136 530 795 1002 748 894 1010 916 873 772 940 992 907 650 446 518 445 497 392 303 165 95 111 47 3
0 0 0 0 0 0 0 0 0 0 0 0 0 0 0 0 0 0 0 0 7 0 0 1 333 529 883 905 1311 955 1057 1045 922 790 981 951 695 438 442 529 454 422 472 361 228 120 53 61 32
0 0 0 0 0 0 0 0 0 0 0 0 0 0 0 0 0 0 0 0 0 0 0 8 313 465 894 1171 1246 1524 1262 994 701 365 364 493 363 407 527 568 575 581 618 567 359 141 77 31 17
0 0 0 0 0 0 0 0 0 0 0 0 0 0 0 0 0 0 0 0 0 0 0 68 240 795 1282 1639 1557 1369 1361 935 468 308 224 433 457 507 549 583 582 514 576 551 335 150 205 136 53
0 0 0 0 0 0 0 0 0 0 0 0 0 0 0 0 0 0 0 0 0 9 155 206 401 1122 1547 1758 1734 1391 1220 838 598 312 206 369 407 530 644 696 569 656 656 499 354 278 192 118 88
0 0 0 0 0 0 0 0 0 0 0 0 0 0 0 0 0 0 0 0 7 30 326 623 1110 1447 1777 1782 1698 1452 1112 572 343 260 206 358 566 577 443 404 368 418 314 278 194 137 120 83 22
0 0 0 0 0 0 0 0 0 0 0 0 0 0 0 0 0 0 0 0 56 192 454 820 1462 1754 1925 1814 1625 1364 736 422 386 203 227 341 361 417 436 417 345 364 372 270 132 114 113 112 34
0 0 0 0 0 0 0 0 0 0 0 0 0 0 0 0 0 0 0 0 148 422 679 877 1485 1988 1865 1665 1331 1011 578 399 213 255 317 368 423 459 402 347 243 269 296 324 314 278 176 129 41
0 0 0 0 0 0 0 0 0 0 0 0 0 0 0 0 0 0 0 2 413 539 619 917 1319 1540 1418 1207 820 513 340 150 195 238 263 406 414 376 363 351 339 324 321 326 336 240 225 164 106
0 0 0 0 0 0 0 0 0 0 0 0 0 0 0 0 0 0 212 441 550 708 890 1173 1334 1280 868 682 471 195 148 282 147 240 269 257 302 364 380 370 205 112 207 179 276 286 226 113 129
0 0 0 0 0 0 0 0 0 0 0 0 0 0 0 0 0 80 297 476 628 789 1013 1046 1031 905 610 482 205 246 204 238 311 293 255 278 295 207 209 236 58 42 229 309 335 166 129 155 142
0 0 0 0 0 0 0 0 0 0 0 0 0 0 0 104 121 268 431 558 732 893 897 814 783 530 455 344 258 309 219 164 290 165 79 95 57 228 10 176 221 324 443 529 347 191 184 184 142
0 0 0 0 0 0 0 0 0 0 0 0 0 0 122 248 338 415 458 626 770 786 662 760 557 351 391 146 296 269 284 275 294 154 139 37 131 0 187 173 242 349 346 332 289 159 119 69 47
0 0 0 0 0 0 0 0 0 0 0 0 0 20 250 379 412 374 456 627 673 645 624 690 462 340 258 185 298 251 403 191 213 58 11 30 93 156 119 219 330 97 182 117 127 76 79 24 26
0 0 0 0 0 0 0 0 0 0 0 0 0 132 267 294 337 367 493 550 553 636 619 551 401 283 185 187 238 130 55 205 29 9 12 18 10 32 28 25 62 137 64 59 146 83 53 0 2
0 0 0 0 0 0 0 0 0 3 0 0 15 213 275 326 319 425 438 490 573 513 517 387 246 233 76 245 286 229 252 95 8 0 6 0 0 0 7 72 55 67 35 0 87 62 56 0 0

GFSSGP_con_mlcape_030.txt.gz
CAPE
0 0 0 0 0 0 0 0 0 0 0 0 0 0 0 0 0 0 0 1 33 0 0 4 0 0 0 0 0 0 0 0 0 0 0 0 0 0 0 0 0 0 0 0 0 0 0 0 0
0 0 0 0 0 0 0 0 0 0 0 0 0 0 0 0 0 0 0 86 14 0 0 0 0 0 0 0 0 0 0 0 0 0 0 0 0 0 0 0 0 0 0 0 0 0 0 0 0
0 0 0 0 0 0 0 0 0 2 0 2 0 0 0 0 0 0 5 119 20 0 0 0 0 0 0 0 0 0 0 0 0 0 0 0 0 0 0 0 0 0 0 0 0 0 11 0 0
0 0 0 0 0 0 0 0 0 10 0 0 0 0 0 0 0 0 64 92 0 0 0 0 0 0 0 0 0 0 0 0 0 0 0 0 0 0 0 0 0 0 25 80 101 129 157 147 121
0 0 0 0 0 0 0 0 0 0 7 0 0 0 0 0 0 39 40 47 0 0 0 0 0 0 0 0 0 0 0 0 0 0 0 0 1 2 3 25 41 60 104 173 254 265 350 405 331
0 0 0 0 0 0 0 0 0 0 10 0 0 0 0 0 0 45 93 49 0 0 0 0 0 0 0 0 0 0 0 0 0 0 0 6 26 41 59 73 100 147 337 456 380 329 377 337 304
0 0 0 0 0 0 0 0 0 0 0 0 0 0 0 1 0 2 73 42 6 0 0 0 0 0 0 0 0 0 0 0 0 0 10 32 56 72 80 89 152 346 564 665 427 320 248 159 168
0 0 0 0 0 0 0 0 0 0 0 0 0 0 0 0 0 0 0 4 75 27 23 12 0 0 0 0 0 0 0 0 0 0 18 52 69 97 111 97 222 464 562 573 265 186 102 89 62
0 0 0 0 0 0 0 0 0 0 0 0 0 0 0 1 0 0 0 0 3 104 114 138 118 2 0 0 0 0 0 0 0 0 29 72 150 157 176 141 148 468 505 481 306 211 177 100 35
0 0 0 0 0 0 0 0 0 0 0 0 0 0 0 0 0 0 0 0 0 22 153 252 247 174 38 14 11 29 39 15 3 30 41 116 150 115 196 121 292 607 641 607 415 307 309 107 0
0 0 0 0 0 0 0 0 0 0 0 0 0 0 0 0 0 0 0 0 0 0 33 241 273 263 231 125 39 181 93 23 61 93 50 145 147 147 143 96 283 692 856 656 619 413 321 24 0
0 0 0 0 0 0 0 0 0 0 0 0 0 0 0 0 0 0 0 0 0 0 0 101 276 328 287 280 187 206 140 46 90 193 160 52 88 77 67 166 229 391 518 439 297 189 96 45 0
0 0 0 0 0 0 0 0 0 0 0 0 0 0 0 0 0 0 0 0 0 0 0 8 124 321 380 370 397 428 330 153 163 307 229 87 91 59 146 374 325 283 277 308 245 122 76 107 2
0 0 0 0 0 0 0 0 0 0 0 0 0 0 0 0 0 0 0 0 0 0 0 0 74 326 503 450 459 521 578 428 285 295 194 186 145 88 385 512 226 168 253 239 157 149 126 85 45
0 0 0 0 0 0 0 0 0 0 0 0 0 0 0 0 0 0 0 0 0 0 0 0 4 418 552 598 597 681 725 595 457 358 292 251 242 213 552 536 359 391 322 211 154 121 56 0 0
0 0 0 0 0 0 0 0 0 0 0 0 0 0 0 0 0 0 0 0 0 0 0 0 5 251 603 766 684 851 853 785 704 619 612 696 519 464 607 491 442 448 306 210 152 83 40 35 33
0 0 0 0 0 0 0 0 0 0 0 0 0 0 0 0 0 0 0 0 0 0 0 0 7 136 397 786 750 887 966 916 793 725 894 836 765 767 765 451 412 393 404 390 316 284 181 90 39
0 0 0 0 0 0 0 0 0 0 0 0 0 0 0 0 0 0 0 0 0 0 0 0 36 246 478 726 960 928 949 897 762 837 927 827 916 869 516 386 417 366 435 455 422 351 196 154 82
0 0 0 0 0 0 0 0 0 0 0 0 0 0 0 0 0 0 0 0 0 0 0 0 63 499 683 906 1216 1221 1071 865 654 661 630 650 609 237 212 394 404 393 486 484 245 181 112 115 100
0 0 0 0 0 0 0 0 0 0 0 0 0 0 0 0 0 0 0 0 0 0 8 4 92 449 935 1170 1208 1245 859 442 334 241 272 302 229 360 415 445 515 546 489 299 155 94 118 59 73
0 0 0 0 0 0 0 0 0 0 0 0 0 0 0 0 0 0 0 0 0 2 10 63 302 772 1304 1437 1330 994 734 494 346 185 161 216 289 406 464 454 295 294 250 184 89 50 60 60 22
0 0 0 0 0 0 0 0 0 0 0 0 0 0 0 0 0 0 0 0 0 3 373 755 1027 1275 1525 1579 1452 1183 907 793 520 352 179 217 459 457 359 286 228 131 76 80 124 107 28 57 49
0 0 0 0 0 0 0 0 0 0 0 0 0 0 0 0 0 0 0 0 2 317 692 1155 1323 1592 1625 1565 1340 1127 983 688 310 169 165 259 268 307 264 129 137 90 69 106 107 143 96 64 40
0 0 0 0 0 0 0 0 0 0 0 0 0 0 0 0 0 0 0 0 213 617 927 1356 1600 1655 1520 1352 1097 861 526 254 225 211 222 223 234 270 251 154 60 6 18 53 51 88 100 69 54
0 0 0 0 0 0 0 0 0 0 0 0 0 0 0 0 0 0 0 64 413 670 793 1057 1310 1327 1028 654 354 271 195 119 168 171 123 129 159 103 15 100 21 0 2 93 119 105 74 62 54
0 0 0 0 0 0 0 0 0 0 0 0 0 0 0 0 0 10 117 387 642 810 937 1018 871 754 550 248 150 99 131 128 144 152 118 83 37 15 6 0 0 13 156 247 219 111 63 65 95
0 0 0 0 0 0 0 0 0 0 0 0 0 0 0 1 73 111 371 638 724 761 833 833 627 399 198 189 130 102 101 124 70 14 5 0 6 1 1 0 40 150 213 266 119 42 26 35 40
0 0 0 0 0 0 0 0 0 0 0 0 0 0 8 169 170 309 488 614 652 682 685 513 351 198 167 159 123 71 116 120 71 23 0 0 0 4 8 19 77 52 38 49 80 51 36 25 6
0 0 0 0 0 0 0 0 0 0 0 0 0 0 90 202 207 379 485 555 562 520 488 311 236 113 102 123 113 137 91 95 3 0 0 0 0 15 2 40 94 50 21 12 18 11 13 1 0
0 0 0 0 0 0 0 0 0 0 0 0 0 0 239 215 306 384 435 494 429 497 420 259 165 90 72 119 84 80 84 26 0 0 0 0 0 0 5 16 46 16 6 0 18 21 9 0 1

GFSSGP_con_mlcape_033.txt.gz
CAPE
0 0 0 0 0 0 0 0 0 0 0 0 0 0 0 0 0 0 0 0 0 0 0 0 0 0 0 0 0 0 0 0 0 0 0 0 0 0 0 0 0 0 0 0 0 0 0 0 0
0 0 0 0 0 0 0 0 0 0 0 0 0 0 0 0 0 0 0 0 11 0 0 0 0 0 0 0 0 0 0 0 0 0 0 0 0 0 0 0 0 0 0 0 0 0 0 0 0
0 0 0 0 0 0 0 0 0 0 0 0 0 0 0 0 0 0 0 0 59 35 0 0 0 0 0 0 0 0 0 0 0 0 0 0 0 0 0 0 0 0 0 0 0 0 0 21 24
0 0 0 0 0 0 0 0 0 0 0 0 0 0 0 0 0 0 0 16 6 1 0 0 0 0 0 0 0 0 0 0 0 0 0 0 0 0 0 0 0 0 10 21 48 82 94 144 150
0 0 0 0 0 0 0 0 0 0 0 0 0 0 0 0 0 0 6 37 0 0 0 0 0 0 0 0 0 0 0 0 0 0 0 0 0 0 0 2 12 33 70 131 194 251 379 482 478
0 0 0 0 0 0 0 0 0 0 0 0 0 0 0 0 0 0 10 11 0 0 0 0 0 0 0 0 0 0 0 0 0 0 0 0 4 0 11 39 71 94 171 273 384 399 344 451 477
0 0 0 0 0 0 0 0 0 0 0 0 0 0 0 0 0 36 31 45 32 0 0 0 0 0 0 0 0 0 0 0 0 0 0 1 13 20 39 75 104 181 333 526 663 632 432 406 411
0 0 0 0 0 0 0 0 0 0 0 0 0 0 0 0 0 23 84 81 48 4 0 0 3 4 0 0 0 0 0 0 0 0 0 23 52 61 73 91 112 254 484 650 692 599 356 311 234
0 0 0 0 0 0 0 0 0 0 0 0 0 0 0 0 0 0 5 0 51 53 4 0 6 22 0 0 1 1 0 0 0 1 32 78 129 170 131 114 94 288 555 623 713 586 347 252 231
0 0 0 0 0 0 0 0 0 0 0 0 0 0 0 0 0 0 0 0 11 84 111 96 51 27 0 0 0 20 1 33 26 34 72 136 161 117 170 130 177 243 558 642 726 604 389 363 167
0 0 0 0 0 0 0 0 0 0 0 0 0 0 0 0 0 0 0 0 0 0 65 161 188 123 5 1 3 21 38 22 24 21 59 154 162 132 280 146 214 313 716 817 881 684 414 308 104
0 0 0 0 0 0 0 0 0 0 0 0 0 0 0 0 0 0 0 0 0 0 0 45 152 202 98 14 20 19 47 23 13 50 42 11 47 36 75 61 56 150 511 667 652 544 375 214 113
0 0 0 0 0 0 0 0 0 0 0 0 0 0 0 0 0 0 0 0 0 0 0 1 86 152 243 163 96 102 113 70 21 58 121 43 11 0 32 41 54 204 325 445 440 376 271 129 52
0 0 0 0 0 0 0 0 0 0 0 0 0 0 0 0 0 0 0 0 0 0 0 0 32 116 309 323 306 281 274 231 146 129 164 105 14 0 1 21 64 295 281 301 324 285 218 109 60
0 0 0 0 0 0 0 0 0 0 0 0 0 0 0 0 0 0 0 0 0 0 0 0 0 16 138 305 385 431 424 379 275 211 233 170 113 0 0 0 164 418 234 206 238 186 109 104 58
0 0 0 0 0 0 0 0 0 0 0 0 0 0 0 0 0 0 0 0 0 0 0 0 0 0 100 267 433 507 582 573 461 375 340 283 220 72 30 19 375 406 272 302 253 169 138 105 42
0 0 0 0 0 0 0 0 0 0 0 0 0 0 0 0 0 0 0 0 0 0 0 0 0 3 76 295 470 589 685 677 595 485 455 374 321 212 106 54 518 325 341 297 249 162 123 111 88
0 0 0 0 0 0 0 0 0 0 0 0 0 0 0 0 0 0 0 0 0 0 0 0 0 0 163 497 578 682 782 736 618 709 683 664 542 523 327 350 458 312 319 336 267 242 190 126 90
0 0 0 0 0 0 0 0 0 0 0 0 0 0 0 0 0 0 0 0 0 0 0 0 0 0 76 374 584 730 850 774 759 793 808 776 782 683 463 613 472 300 369 319 277 250 140 92 49
0 0 0 0 0 0 0 0 0 0 0 0 0 0 0 0 0 0 0 0 0 0 0 0 0 8 62 376 678 768 665 608 768 801 888 924 886 876 780 379 262 310 310 357 245 138 85 27 2
0 0 0 0 0 0 0 0 0 0 0 0 0 0 0 0 0 0 0 0 0 0 0 0 0 7 273 618 666 585 498 541 640 765 830 607 639 590 526 163 287 308 247 172 86 15 3 13 2
0 0 0 0 0 0 0 0 0 0 0 0 0 0 0 0 0 0 0 0 0 0 0 11 56 246 691 856 884 829 781 811 420 352 305 246 298 203 237 362 343 227 104 27 0 0 0 0 15
0 0 0 0 0 0 0 0 0 0 0 0 0 0 0 0 0 0 0 0 0 0 1 299 615 774 998 1020 905 748 669 430 255 179 161 108 196 245 333 317 186 22 10 1 12 23 1 0 13
0 0 0 0 0 0 0 0 0 0 0 0 0 0 0 0 0 0 0 0 0 0 255 739 958 1058 1140 1101 892 909 770 564 381 182 120 101 148 228 159 56 16 17 0 0 4 19 27 33 28
0 0 0 0 0 0 0 0 0 0 0 0 0 0 0 0 0 0 0 0 0 257 855 965 1092 1146 1227 1099 889 836 713 594 379 89 84 119 125 105 112 31 0 0 0 0 3 45 56 47 35
0 0 0 0 0 0 0 0 0 0 0 0 0 0 0 0 0 0 0 0 191 844 1048 1149 1246 1153 1045 870 640 378 201 110 107 104 111 104 63 16 0 0 0 0 0 6 49 44 37 39 34
0 0 0 0 0 0 0 0 0 0 0 0 0 0 0 0 0 0 37 279 550 666 781 1029 951 648 421 226 109 65 51 84 97 62 49 14 0 0 0 0 0 2 52 39 50 67 20 36 41
0 0 0 0 0 0 0 0 0 0 0 0 0 0 0 0 0 62 303 477 527 547 569 701 521 289 37 14 46 53 50 20 17 10 0 0 0 0 0 0 0 37 20 20 25 29 29 20 8
0 0 0 0 0 0 0 0 0 0 0 0 0 0 0 0 7 232 448 482 546 535 434 230 137 52 23 25 14 29 34 46 21 1 0 0 0 0 0 0 21 18 5 0 11 3 4 11 3
0 0 0 0 0 0 0 0 0 0 0 0 0 0 0 0 222 374 445 493 531 443 288 119 56 50 25 10 13 29 26 16 0 0 0 0 0 0 0 0 3 21 5 0 4 12 0 0 0

GFSSGP_con_mlcape_036.txt.gz
CAPE
0 0 0 0 0 0 0 0 0 0 0 0 0 0 2 0 0 0 0 0 0 0 0 0 0 0 0 0 0 0 0 0 0 0 0 0 0 0 0 0 0 0 0 0 0 0 0 0 0
0 0 0 0 0 0 0 0 0 0 0 0 0 0 0 0 0 0 0 0 0 0 0 0 0 0 0 0 0 0 0 0 0 0 0 0 0 0 0 0 0 0 0 0 0 0 0 0 0
0 0 0 0 0 0 0 0 0 0 0 0 0 0 0 0 0 0 0 0 0 0 0 0 0 0 0 0 0 0 0 0 0 0 0 0 0 0 0 0 0 0 0 0 0 0 0 0 0
0 0 0 0 0 0 0 0 0 0 0 0 0 0 0 0 0 0 0 0 0 0 0 0 0 0 0 0 0 0 0 0 0 0 0 0 0 0 0 0 0 0 8 14 14 45 77 118 153
0 0 0 0 0 0 0 0 0 0 0 0 0 0 0 0 0 0 0 0 0 0 1 0 0 0 0 0 0 0 0 0 0 0 0 0 0 0 0 0 5 21 46 69 128 205 268 420 509
0 0 0 0 0 0 0 0 0 0 0 0 0 0 0 0 0 0 0 0 0 0 11 0 0 0 0 0 0 0 0 0 0 0 0 0 0 0 4 11 34 71 123 187 255 328 331 288 286
0 0 0 0 0 0 0 0 0 0 0 0 0 0 0 0 0 5 21 18 6 7 5 0 0 6 10 0 0 0 0 0 0 0 0 0 0 0 9 19 56 141 225 284 424 611 577 424 382
0 0 0 0 0 0 0 0 0 0 0 0 0 0 0 0 0 29 36 22 28 5 0 0 1 48 28 5 5 0 0 0 0 1 0 0 0 0 9 25 111 218 302 415 641 752 651 428 315
0 0 0 0 0 0 0 0 0 0 0 0 0 0 0 0 0 0 26 10 45 45 5 0 1 12 26 21 30 66 4 0 0 17 35 23 42 33 33 56 78 210 371 536 752 819 606 385 232
0 0 0 0 0 0 0 0 0 0 0 0 0 0 0 0 0 0 0 0 3 28 44 14 4 23 60 55 19 128 75 62 23 38 97 108 64 34 32 71 106 143 364 634 797 800 667 417 168
0 0 0 0 0 0 0 0 0 0 0 0 0 0 0 0 0 0 0 0 0 0 20 65 38 29 34 62 21 33 85 34 50 36 73 179 114 96 233 83 194 194 294 585 914 884 770 311 173
0 0 0 0 0 0 0 0 0 0 0 0 0 0 0 0 0 0 0 0 0 0 0 0 77 81 55 49 40 25 45 37 10 52 79 46 99 33 89 32 36 80 156 431 689 671 558 308 195
0 0 0 0 0 0 0 0 0 0 0 0 0 0 0 0 0 0 0 0 0 0 0 0 1 21 58 76 51 37 38 32 12 56 49 90 47 0 12 41 18 28 43 195 513 581 492 354 173
0 0 0 0 0 0 0 0 0 0 0 0 0 0 0 0 0 0 0 0 0 0 0 0 0 0 16 87 79 76 57 96 59 63 74 135 63 1 0 0 6 6 6 151 378 358 364 252 146
0 0 0 0 0 0 0 0 0 0 0 0 0 0 0 0 0 0 0 0 0 0 0 0 0 0 0 26 103 107 110 142 124 108 140 146 95 4 0 0 0 0 0 161 201 204 181 199 116
0 0 0 0 0 0 0 0 0 0 0 0 0 0 0 0 0 0 0 0 0 0 0 0 0 0 0 0 135 211 207 212 221 201 213 190 114 47 1 0 0 0 0 245 143 139 196 156 117
0 0 0 0 0 0 0 0 0 0 0 0 0 0 0 0 0 0 0 0 0 0 0 0 0 0 0 1 107 231 296 348 307 298 318 272 195 125 32 7 0 0 60 219 138 194 162 228 229
0 0 0 0 0 0 0 0 0 0 0 0 0 0 0 0 0 0 0 0 0 0 0 0 0 0 0 0 102 256 350 416 419 436 423 432 357 239 122 23 0 10 272 209 174 208 146 228 191
0 0 0 0 0 0 0 0 0 0 0 0 0 0 0 0 0 0 0 0 0 0 0 0 0 0 0 0 105 263 353 430 528 531 546 537 464 341 246 114 54 89 337 248 200 204 227 175 53
0 0 0 0 0 0 0 0 0 0 0 0 0 0 0 0 0 0 0 0 0 0 0 0 0 0 0 17 189 363 416 343 549 650 694 686 544 442 408 297 255 376 277 230 211 163 18 0 0
0 0 0 0 0 0 0 0 0 0 0 0 0 0 0 0 0 0 0 0 0 0 0 0 0 0 0 34 186 250 330 358 559 685 746 685 665 659 544 433 431 369 180 246 149 14 11 10 0
0 0 0 0 0 0 0 0 0 0 0 0 0 0 0 0 0 0 0 0 0 0 0 0 0 0 0 56 173 309 360 480 611 791 734 740 698 646 567 511 185 96 170 273 63 2 0 0 0
0 0 0 0 0 0 0 0 0 0 0 0 0 0 0 0 0 0 0 0 0 0 0 0 0 5 57 270 432 483 511 460 514 628 734 471 422 282 426 393 153 275 223 27 3 0 0 0 0
0 0 0 0 0 0 0 0 0 0 0 0 0 0 0 0 0 0 0 0 0 0 0 5 149 241 394 565 513 551 602 520 577 408 206 187 162 178 187 234 276 158 5 1 0 0 0 5 12
0 0 0 0 0 0 0 0 0 0 0 0 0 0 0 0 0 0 0 0 0 0 0 284 535 555 669 703 555 477 429 395 407 241 103 36 65 85 102 46 4 0 0 0 0 0 14 36 32
0 0 0 0 0 0 0 0 0 0 0 0 0 0 0 0 0 0 0 0 0 20 306 641 778 796 742 622 465 316 255 270 197 27 5 9 46 51 2 0 0 0 0 0 0 13 40 17 46
0 0 0 0 0 0 0 0 0 0 0 0 0 0 0 0 0 0 0 2 155 522 812 789 794 778 611 442 358 311 194 75 24 3 11 17 5 0 0 0 0 0 0 0 14 20 25 23 20
0 0 0 0 0 0 0 0 0 0 0 0 0 0 0 0 0 0 42 257 599 814 744 707 707 705 461 307 196 49 6 11 13 5 4 0 0 0 0 0 0 0 0 0 4 30 34 25 25
0 0 0 0 0 0 0 0 0 0 0 0 0 0 0 0 0 18 261 425 517 596 610 503 420 307 153 56 2 4 2 8 2 1 0 0 0 0 0 0 0 0 0 0 0 12 9 11 13
0 0 0 1 0 0 0 0 0 0 0 0 0 0 0 0 4 230 368 455 420 482 462 297 49 23 0 0 0 0 0 0 0 0 0 0 0 0 0 0 0 0 0 0 0 1 2 0 5

GFSSGP_con_mlcape_042.txt.gz
CAPE
0 0 0 0 0 0 0 0 0 0 0 0 0 0 0 0 0 9 3 11 1 0 74 6 0 0 0 0 0 0 0 0 22 70 72 41 3 0 0 0 0 0 0 0 0 0 0 0 0
0 0 0 0 0 0 0 0 0 0 0 0 0 0 0 0 0 0 0 20 20 62 129 0 0 0 0 0 0 0 0 0 0 0 0 0 0 0 0 0 0 0 0 0 0 0 0 0 0
0 0 0 0 0 0 0 0 0 0 0 0 0 0 0 0 0 0 0 9 49 202 198 1 0 0 0 0 0 0 0 0 0 0 0 0 0 0 0 0 0 0 0 0 0 0 9 17 22
0 0 0 0 0 0 0 0 0 0 0 0 0 0 0 0 23 0 1 11 93 207 208 65 0 0 0 0 0 0 0 0 0 0 0 0 0 0 0 0 0 0 0 1 0 36 53 64 107
0 0 0 0 0 0 0 0 0 0 0 0 0 0 0 0 17 0 0 4 18 130 182 157 171 2 0 0 0 0 0 0 0 0 0 0 0 0 0 0 0 0 19 32 33 70 110 159 268
0 0 0 0 0 0 0 0 0 0 0 0 0 0 0 0 28 0 17 53 34 131 210 92 357 67 1 0 0 0 0 0 0 0 0 0 0 0 0 0 0 12 75 97 116 154 235 338 477
0 0 0 0 0 0 0 0 0 0 0 0 0 0 0 0 0 3 83 188 188 277 325 217 437 153 128 6 0 0 0 0 0 0 0 0 0 0 0 0 5 38 114 198 257 327 382 437 353
0 0 0 0 0 0 0 0 0 0 0 0 0 0 0 0 37 189 116 250 318 382 363 427 446 282 142 57 54 0 0 0 0 0 0 0 1 1 0 4 27 74 137 237 339 483 582 701 490
0 0 0 0 0 0 0 0 0 0 0 0 0 0 0 0 67 185 151 124 127 215 403 483 373 421 261 25 64 93 138 40 29 7 22 24 0 28 25 11 25 78 201 309 430 585 816 894 583
0 0 0 0 0 0 0 0 0 0 0 0 0 0 0 0 51 104 152 83 126 220 381 544 685 483 460 153 75 353 102 123 51 3 22 53 23 25 17 25 72 105 311 464 546 822 1000 903 566
0 0 0 0 0 0 0 0 0 0 0 0 0 0 0 0 0 0 17 50 144 170 142 417 745 793 693 495 218 273 325 124 137 101 88 91 38 56 78 49 119 127 319 317 417 698 828 715 665
0 0 0 0 0 0 0 0 0 0 0 0 0 0 0 0 0 0 0 0 0 0 0 0 569 926 879 680 562 538 512 396 332 232 266 177 182 144 173 81 118 113 131 193 409 630 841 878 904
0 0 0 0 0 0 0 0 0 0 0 0 0 0 0 0 0 0 0 0 0 0 0 0 27 879 1114 1166 763 859 888 647 629 452 347 295 174 201 234 171 93 130 147 220 380 592 894 893 929
0 0 0 0 0 0 0 0 0 0 0 0 0 0 0 0 0 0 0 0 0 0 0 0 2 141 800 451 628 886 1148 801 747 642 469 622 323 296 222 227 204 112 165 204 219 431 755 811 776
0 0 0 0 0 0 0 0 0 0 0 0 0 0 0 0 0 0 0 0 0 0 0 3 11 5 23 143 333 813 616 784 593 690 733 593 763 394 338 260 262 118 179 166 234 387 823 807 786
0 0 0 0 0 0 0 0 0 0 0 0 0 0 0 0 0 0 0 0 0 0 0 2 0 0 0 5 111 208 328 573 689 665 824 776 924 738 514 358 268 136 160 229 277 321 386 590 647
0 0 0 0 0 0 0 0 0 0 0 0 0 0 0 0 0 0 0 0 0 0 0 0 0 0 0 0 83 242 615 835 730 795 861 885 928 997 736 670 353 295 175 193 183 206 212 429 962
0 0 0 0 0 0 0 0 0 0 0 0 0 0 0 0 0 0 0 0 0 0 0 0 0 0 0 0 103 298 665 919 819 846 940 963 1038 999 967 784 653 545 349 172 195 107 317 1069 810
0 0 0 0 0 0 0 0 0 0 0 0 0 0 0 0 0 0 0 0 0 0 0 0 0 0 0 0 9 288 516 850 959 1041 1111 1118 1035 1075 1062 1057 919 784 333 206 247 286 1119 844 701
0 0 0 0 0 0 0 0 0 0 0 0 0 0 0 0 0 0 0 0 0 0 0 0 0 0 0 0 53 215 712 844 1152 1144 1168 1089 1226 1261 1048 1150 993 784 526 337 287 980 856 720 918
0 0 0 0 0 0 0 0 0 0 0 0 0 0 0 0 0 0 0 0 0 0 0 0 0 0 0 0 295 954 1148 1107 767 839 1248 1285 1190 989 1004 1174 1102 957 582 548 949 952 858 565 643
0 0 0 0 0 0 0 0 0 0 0 0 0 0 0 0 0 0 0 0 0 0 0 0 0 0 0 5 256 947 1046 807 856 1206 1245 971 934 1085 1408 1406 1210 957 814 1169 937 852 770 830 590
3 0 0 0 0 0 0 0 0 0 0 0 0 0 0 0 0 0 0 0 0 0 0 0 0 0 0 146 536 1153 1116 1261 1402 1392 1079 1013 1171 1296 1395 1327 1300 1244 1212 1057 669 939 1134 781 515
6 9 8 0 1 0 0 0 0 0 0 0 0 0 0 0 0 0 0 0 0 0 0 0 0 25 361 817 1092 1421 1389 1430 1562 1753 1427 1519 1587 1543 1459 1309 1227 1237 998 1242 991 980 855 662 143
11 12 25 12 0 0 0 0 0 0 0 0 0 0 0 0 0 0 0 0 0 0 0 0 251 868 977 1068 1211 1432 1772 1701 1952 1886 1815 1730 1568 1415 1439 1391 1212 1090 1183 970 866 797 484 355 121
12 15 39 19 11 0 0 0 0 0 0 0 0 0 0 0 0 0 0 0 0 0 0 321 799 1234 1280 1364 1570 1783 1909 1991 2053 1903 1795 1578 1297 916 1265 1280 1311 1084 987 820 717 449 235 218 354
42 10 62 4 0 5 0 0 0 0 0 0 0 0 0 0 0 0 0 0 0 27 443 811 1270 1469 1516 1627 1700 1877 1907 1885 1719 1610 1260 796 683 990 1096 1117 1036 888 736 616 549 175 261 326 372
35 72 65 66 1 17 0 0 0 0 0 0 0 0 0 0 7 89 121 433 385 586 947 1382 1565 1676 1650 1584 1600 1566 1490 1435 1405 1015 635 702 899 802 1006 954 835 529 365 415 352 301 418 391 446
19 37 18 11 56 2 3 0 0 0 0 0 0 0 0 0 277 340 509 601 927 1373 1594 1722 1727 1645 1582 1459 1393 1373 1231 911 720 765 840 919 858 738 505 278 199 204 320 447 522 470 316 326 227
4 2 6 69 11 3 0 0 1 0 0 0 0 0 0 0 331 376 468 892 1575 1618 1659 1675 1593 1530 1429 1326 1106 854 693 710 759 706 702 677 389 149 91 88 126 234 312 408 349 235 96 152 11

GFSSGP_con_mlcape_045.txt.gz
CAPE
0 0 0 0 0 0 0 0 0 0 0 0 0 0 0 8 72 108 131 0 0 8 553 0 0 0 0 0 0 0 36 657 1008 1116 934 682 474 234 77 0 0 0 0 0 0 0 0 0 0
0 0 0 0 0 0 0 0 0 0 0 0 0 1 32 56 35 5 56 0 0 88 323 0 0 0 0 0 0 0 0 232 708 810 697 491 227 72 0 0 0 0 0 0 0 0 0 0 0
0 0 0 0 0 0 0 0 0 0 0 0 0 1 2 12 24 0 3 0 5 160 368 97 0 0 0 0 0 0 0 1 141 228 219 118 45 0 0 0 0 0 0 0 0 0 0 3 15
0 0 0 0 0 0 0 0 0 0 0 0 0 0 0 12 61 6 1 0 58 141 237 242 52 0 0 0 0 0 0 0 0 1 6 0 0 0 0 0 0 0 0 12 10 0 32 54 80
0 0 0 0 0 0 0 0 0 0 8 0 0 0 0 0 0 0 1 0 28 76 158 459 201 0 0 0 0 0 0 0 0 0 0 0 0 0 0 0 0 0 0 5 0 21 67 90 214
0 0 0 0 0 0 0 0 0 0 0 0 0 0 7 0 1 0 0 0 2 66 169 786 279 31 16 0 0 0 0 0 0 0 0 0 0 0 0 0 0 0 13 27 8 69 119 181 357
0 0 0 0 0 0 0 0 0 0 0 0 0 0 1 0 3 0 0 0 0 110 223 1177 1062 236 101 44 0 0 0 0 0 0 0 0 0 0 0 0 0 0 22 92 114 158 252 375 469
0 0 0 0 0 0 0 0 0 0 0 0 0 28 5 12 0 0 0 13 0 96 216 246 1380 502 75 84 39 0 0 0 0 0 0 0 0 0 0 0 0 0 48 150 246 340 500 527 516
0 0 0 0 0 0 0 0 0 0 0 0 0 8 6 2 76 21 21 20 26 62 183 305 444 634 261 74 117 73 15 4 0 3 11 13 0 4 0 0 0 0 72 195 309 470 689 702 839
0 0 0 0 0 0 0 0 0 0 0 0 0 0 0 0 43 90 28 36 41 73 176 317 469 591 639 198 127 511 120 70 17 0 7 27 0 0 0 0 0 75 60 246 319 584 795 903 565
0 0 0 0 0 0 0 0 0 0 0 0 1 5 1 2 59 108 89 90 97 72 113 228 1102 1090 837 576 223 338 608 265 253 130 58 75 3 2 17 32 59 58 136 110 271 545 683 611 671
0 0 0 0 0 0 0 0 0 0 0 0 0 69 28 0 0 84 193 190 206 241 177 76 517 1720 1644 978 754 538 551 752 612 474 390 135 187 84 82 76 69 140 104 134 236 322 607 756 877
0 0 0 0 0 0 0 0 0 0 0 0 0 17 7 0 0 2 1 4 11 21 9 8 19 1276 1887 1862 1050 986 872 791 813 808 859 609 269 196 131 192 128 202 167 213 312 388 736 1024 959
0 0 0 0 0 0 0 0 0 0 0 0 0 0 0 0 0 0 0 0 0 0 0 0 6 426 1955 1892 1630 1609 1624 733 896 877 1045 1068 677 530 278 366 354 192 222 190 350 443 529 920 873
0 0 0 0 0 0 0 0 0 0 0 0 0 0 0 0 6 5 0 0 0 0 0 0 20 104 1115 1904 2093 1869 843 879 893 899 1281 1496 1178 907 731 544 510 375 268 416 447 591 571 816 955
0 0 0 0 0 0 0 0 0 0 0 0 0 0 0 0 0 0 0 0 0 0 3 44 3 3 378 634 883 538 355 744 705 939 986 1492 1742 1327 1145 678 677 598 485 341 421 398 429 858 715
0 0 0 0 0 0 0 0 0 0 0 0 0 0 0 0 4 4 0 0 0 0 6 31 68 49 56 135 179 213 480 503 534 852 967 1438 1508 1484 1417 925 811 911 601 445 457 397 486 544 520
0 0 0 0 0 0 0 0 0 0 0 0 0 0 0 0 0 11 10 0 0 0 0 44 76 83 191 66 139 94 153 451 885 991 1080 1373 1542 1460 1551 1174 1244 1017 665 492 518 504 401 323 319
0 0 0 0 0 0 0 0 0 0 0 0 0 0 0 0 0 0 0 0 0 0 0 0 14 126 49 0 3 0 69 405 969 1170 1248 1346 1578 1506 1445 1260 1394 1165 774 767 745 528 484 315 970
0 0 0 0 0 0 0 0 0 0 0 0 0 0 0 0 0 0 0 0 0 0 0 0 44 91 256 27 72 0 93 331 841 1246 1432 1573 1621 1535 1556 1553 1483 1362 1150 971 729 646 420 713 1066
0 0 0 0 0 0 0 0 0 0 0 0 0 0 0 0 0 0 0 0 0 0 0 0 12 98 364 160 118 379 584 1054 1078 1502 1756 1612 1554 1539 1492 1526 1709 1442 1301 874 833 758 866 1100 979
0 0 0 0 0 0 0 0 0 0 0 0 0 0 0 0 0 0 0 0 0 0 0 0 0 36 356 715 50 161 733 872 1493 1496 1359 1427 1463 1479 1327 1343 1546 1438 1268 1098 889 1157 1375 1073 682
0 0 0 0 0 0 0 0 0 0 0 0 0 0 0 0 0 0 0 0 0 0 0 0 0 51 230 332 97 85 903 1035 1314 1334 1859 1365 1320 1137 1473 1507 1550 1574 1259 1456 1419 1369 1180 894 940
10 20 15 0 0 0 0 0 0 0 0 0 0 0 0 0 0 0 0 0 0 0 0 0 0 6 110 111 914 964 1343 1653 1702 1888 1310 1119 1256 1444 1618 1666 1568 1563 1487 1435 1281 1145 1037 1081 800
14 51 43 14 6 0 0 0 0 0 0 0 0 0 0 0 0 0 0 0 0 0 0 0 0 0 11 582 1098 1467 2001 2428 2467 1873 1462 1484 1735 1648 1513 1555 1433 1444 1264 1338 1129 1123 1070 955 518
7 60 53 23 8 4 10 9 0 0 0 0 0 0 0 0 0 0 0 0 0 0 0 0 12 459 1029 1243 1590 2024 2254 2098 2350 1917 2056 1859 1949 1826 1846 1704 1393 1126 912 1171 1039 1044 865 530 287
63 119 97 17 32 0 2 1 2 0 0 0 0 0 0 0 0 0 0 0 0 0 0 3 380 958 1371 1555 1848 2140 2248 2369 2076 2603 2244 1849 1801 1764 1611 1342 1135 1004 1059 962 974 707 516 328 449
105 122 29 24 22 8 1 35 10 0 0 0 0 0 0 0 0 16 13 26 228 4 194 749 1289 1611 1785 2072 2224 2311 2542 2522 2369 2113 1803 1437 1340 969 948 779 951 960 849 766 625 316 444 394 456
139 121 42 38 12 24 1 27 9 25 0 0 4 0 0 1 247 562 756 1139 971 813 854 1318 1616 1838 1954 2104 2202 2116 2010 2044 1774 1269 1061 1097 894 788 669 798 831 536 349 352 460 508 654 399 438
147 133 15 49 0 22 0 0 0 0 19 0 14 1 0 0 526 764 743 1062 1183 1277 1627 1693 1820 1809 1919 1892 1762 1752 1663 1307 1153 1040 942 855 690 572 442 326 207 168 229 326 362 317 283 232 313

GFSSGP_con_mlcape_048.txt.gz
CAPE
0 0 0 0 0 0 0 0 0 0 0 0 0 0 0 9 63 31 0 0 299 0 0 0 0 0 0 0 0 0 200 758 976 1071 1086 994 728 427 145 30 0 0 0 0 0 0 0 0 0
0 0 0 0 0 0 0 0 0 0 0 0 0 0 9 35 58 12 0 0 467 18 0 0 0 0 0 0 0 0 63 477 925 1066 1016 866 537 259 55 0 0 0 0 0 0 0 0 0 0
0 0 0 0 0 0 0 0 0 0 36 0 16 22 58 106 38 24 0 0 686 130 0 0 0 0 0 0 0 0 0 133 599 822 887 705 351 153 28 0 0 0 0 0 0 0 0 0 0
0 0 0 0 0 0 0 0 0 0 17 0 20 17 60 88 58 53 0 0 347 298 52 61 0 0 0 0 0 0 0 0 151 393 549 429 146 54 0 0 0 0 0 0 0 0 0 9 29
0 0 0 0 0 0 0 0 0 1 12 0 1 15 30 93 81 0 0 0 188 395 325 234 0 0 0 0 0 0 0 0 2 63 121 107 22 0 0 0 0 0 0 2 8 0 18 57 103
0 0 0 0 0 0 0 0 0 0 0 20 15 29 34 48 59 0 0 0 72 221 540 479 94 0 0 0 0 0 0 0 0 0 0 0 0 0 0 0 0 0 0 16 22 7 45 73 138
0 0 0 0 0 0 0 0 0 0 0 0 34 30 79 48 3 9 0 3 30 216 843 642 276 0 0 0 0 0 0 0 0 0 0 0 0 0 0 0 0 0 0 18 26 30 87 141 227
0 0 0 0 0 0 0 0 0 0 0 0 1 12 17 160 29 0 0 0 27 194 879 981 640 252 0 0 0 0 0 0 0 0 0 0 0 0 0 0 0 0 0 19 72 104 184 288 406
0 0 0 0 0 0 0 0 0 0 0 0 0 0 5 74 110 0 0 0 3 87 856 1601 1499 711 115 11 34 17 0 0 0 0 0 0 0 0 0 0 0 0 0 42 119 224 399 533 598
0 0 0 0 0 0 0 0 0 0 0 0 0 0 19 57 56 39 0 19 0 61 140 357 1211 1028 258 85 126 119 0 0 0 0 0 0 0 0 0 1 0 0 0 52 127 285 576 738 671
0 0 0 0 0 0 0 0 0 0 0 0 0 0 22 16 129 175 76 76 59 45 76 313 769 1110 732 362 321 367 197 109 49 39 20 111 3 0 7 0 10 0 51 63 165 358 652 632 637
0 0 0 0 0 0 0 0 0 0 0 0 0 0 44 0 62 137 190 127 85 64 145 679 938 1275 1184 988 530 814 850 651 366 219 62 32 103 25 0 0 22 0 29 52 63 187 486 531 732
0 0 0 0 0 0 0 0 0 0 0 0 0 0 0 79 8 28 125 128 24 0 30 25 1322 1634 1521 1164 1525 745 807 1125 824 661 482 194 167 112 68 52 35 55 35 177 55 311 374 640 792
0 0 0 0 0 0 0 0 0 0 0 0 0 0 0 23 7 0 19 20 20 22 21 11 1081 1560 1758 1276 1453 1948 1164 1143 1235 1203 1087 696 345 420 182 129 264 146 144 200 231 249 591 860 1035
0 0 0 0 0 0 0 0 0 0 0 0 0 0 0 0 21 4 0 0 33 4 0 10 86 1187 1176 1061 1498 1839 2193 1894 1416 1435 1548 1295 900 448 595 411 121 422 439 262 418 369 511 929 1265
0 0 0 0 0 0 0 0 0 0 0 0 0 0 0 0 0 0 0 44 45 8 7 14 9 298 770 1322 1790 2070 1669 1422 1239 1376 1204 2088 1457 1081 905 700 704 461 542 449 523 810 747 712 841
0 0 0 0 0 0 0 0 0 0 0 0 0 0 0 0 7 7 5 25 29 0 0 24 168 32 755 1433 1772 1842 1463 750 984 1171 1168 1656 2083 1587 1404 1254 904 914 771 585 580 536 503 567 903
0 0 0 0 0 0 0 0 0 0 0 0 0 0 0 0 0 17 6 35 19 20 8 15 63 118 165 444 995 707 575 507 650 766 1055 1431 1955 2178 1555 1629 1201 1256 851 874 634 548 588 608 768
0 0 0 0 0 0 0 0 0 0 0 0 0 0 0 0 0 3 12 63 31 50 3 0 83 219 132 316 217 130 106 121 308 845 1206 1538 2007 1996 1944 1445 1715 1128 1259 877 860 722 659 600 463
0 0 0 0 0 0 0 0 0 0 0 0 0 0 0 0 0 0 0 61 37 7 0 0 11 29 79 96 110 107 160 159 228 932 1507 1742 2047 1897 1927 1731 1499 1423 1459 1024 949 858 672 558 545
0 0 0 0 0 0 0 0 0 0 0 0 0 0 0 0 0 0 1 0 0 0 0 0 0 0 0 27 208 480 168 122 493 1322 1674 1750 1906 1928 1923 1579 1461 1699 1365 1138 1141 807 620 619 649
0 0 0 0 0 0 0 0 0 0 0 0 0 0 0 0 0 0 0 0 0 0 0 0 2 0 18 341 665 554 408 231 423 1223 1912 1958 1902 1861 1858 1615 1616 1833 1356 1459 1055 984 663 790 929
0 0 0 0 0 0 0 0 0 0 0 0 0 0 0 0 0 0 0 0 0 0 0 0 0 3 24 352 354 555 560 882 1373 1835 1840 1982 1768 1544 1427 1353 1498 1471 1224 1420 1062 882 941 1128 769
0 0 0 1 4 1 0 0 0 0 0 0 0 0 0 0 0 0 0 0 0 0 0 0 0 0 10 152 787 506 175 585 1565 1538 1885 1722 1367 1192 1282 1189 1431 1361 1361 1600 1174 1183 1191 872 751
13 33 4 3 4 2 0 0 0 0 0 0 0 0 0 3 1 0 0 0 0 0 0 0 0 14 82 353 1103 551 38 1293 2093 1882 1971 1481 1218 1090 1337 1530 1355 1537 1526 1549 1162 1033 1010 863 625
43 36 4 17 7 13 0 0 1 0 0 0 0 0 0 0 0 0 0 0 0 0 0 0 0 0 31 463 515 854 666 1997 2864 1876 1600 1144 1208 1264 1556 1582 1482 1612 1301 1280 1113 996 894 825 453
22 49 41 8 0 19 1 0 0 0 0 0 0 0 1 0 0 0 0 0 0 0 0 0 0 0 20 39 816 1517 2096 2496 2566 2090 1506 1451 1789 1916 1412 1833 1371 1458 1051 1113 847 809 725 422 404
110 161 38 73 0 1 9 4 6 32 31 3 0 0 0 11 0 0 0 0 23 6 7 15 181 797 1524 1608 1982 2304 2821 2592 2558 2338 2024 2047 2155 2052 1847 1563 1189 1077 1054 845 756 357 364 300 235
93 114 89 16 0 7 0 0 56 30 0 0 0 6 55 28 2 143 332 1271 901 453 216 681 867 1620 1741 2009 2227 2465 2376 2761 2643 2287 1959 2066 1814 1604 1377 1069 916 896 703 538 479 393 324 120 86
33 62 39 79 4 14 25 0 31 0 0 0 0 90 64 15 2 868 878 1063 1435 1376 1058 1101 1934 1964 2326 2184 2402 2515 2395 2235 1834 1503 1275 1168 1051 825 771 802 658 578 367 262 221 133 367 219 234